<?xml version="1.0" encoding="UTF-8" standalone="no" ?>
<gpx xmlns="http://www.topografix.com/GPX/1/1" xmlns:xsi="http://www.w3.org/2001/XMLSchema-instance" xsi:schemaLocation="http://www.topografix.com/GPX/1/1 http://www.topografix.com/GPX/1/1/gpx.xsd" version="1.1" creator="VisuGPX - https://www.visugpx.com">
  <metadata>
    <name>Randonnée des Rois 2026 By Indestructeam - 19KM</name>
    <desc><![CDATA[#Indestructeam #RandonneeDesRois #Oingt #Beaujolais #PierresDorees]]></desc>
  </metadata>
  <wpt lat="45.97624" lon="4.59641">
    <ele>476.6</ele>
    <name><![CDATA[Ravitaillement]]></name>
    <desc><![CDATA[]]></desc>
  </wpt>
  <wpt lat="45.93991" lon="4.61575">
    <ele>455.9</ele>
    <name><![CDATA[Ravitaillement]]></name>
    <desc><![CDATA[]]></desc>
  </wpt>
  <trk>
    <name><![CDATA[Randonnée des rois 20 km 2026-22519546]]></name>
    <trkseg>
      <trkpt lat="45.94474" lon="4.58298">
        <ele>517</ele>
        <time>2025-10-29T20:37:32Z</time>
      </trkpt>
      <trkpt lat="45.94488" lon="4.5834">
        <ele>519</ele>
        <time>2025-10-29T20:38:15Z</time>
      </trkpt>
      <trkpt lat="45.94489" lon="4.58343">
        <ele>519</ele>
        <time>2025-10-29T20:38:18Z</time>
      </trkpt>
      <trkpt lat="45.94545" lon="4.58316">
        <ele>521</ele>
        <time>2025-10-29T20:39:37Z</time>
      </trkpt>
      <trkpt lat="45.94587" lon="4.58298">
        <ele>521</ele>
        <time>2025-10-29T20:40:36Z</time>
      </trkpt>
      <trkpt lat="45.94635" lon="4.5828">
        <ele>524</ele>
        <time>2025-10-29T20:41:42Z</time>
      </trkpt>
      <trkpt lat="45.94662" lon="4.58277">
        <ele>525</ele>
        <time>2025-10-29T20:42:18Z</time>
      </trkpt>
      <trkpt lat="45.94664" lon="4.58262">
        <ele>527</ele>
        <time>2025-10-29T20:42:32Z</time>
      </trkpt>
      <trkpt lat="45.94669" lon="4.58248">
        <ele>528</ele>
        <time>2025-10-29T20:42:47Z</time>
      </trkpt>
      <trkpt lat="45.94673" lon="4.58228">
        <ele>525</ele>
        <time>2025-10-29T20:43:06Z</time>
      </trkpt>
      <trkpt lat="45.94677" lon="4.5822">
        <ele>525</ele>
        <time>2025-10-29T20:43:15Z</time>
      </trkpt>
      <trkpt lat="45.94683" lon="4.58211">
        <ele>524</ele>
        <time>2025-10-29T20:43:27Z</time>
      </trkpt>
      <trkpt lat="45.94691" lon="4.58202">
        <ele>524</ele>
        <time>2025-10-29T20:43:40Z</time>
      </trkpt>
      <trkpt lat="45.94708" lon="4.58193">
        <ele>525</ele>
        <time>2025-10-29T20:44:04Z</time>
      </trkpt>
      <trkpt lat="45.94721" lon="4.58188">
        <ele>526</ele>
        <time>2025-10-29T20:44:22Z</time>
      </trkpt>
      <trkpt lat="45.94732" lon="4.58184">
        <ele>527</ele>
        <time>2025-10-29T20:44:38Z</time>
      </trkpt>
      <trkpt lat="45.94742" lon="4.58184">
        <ele>528</ele>
        <time>2025-10-29T20:44:51Z</time>
      </trkpt>
      <trkpt lat="45.94751" lon="4.58182">
        <ele>529</ele>
        <time>2025-10-29T20:45:03Z</time>
      </trkpt>
      <trkpt lat="45.94753" lon="4.58183">
        <ele>529</ele>
        <time>2025-10-29T20:45:06Z</time>
      </trkpt>
      <trkpt lat="45.94755" lon="4.58187">
        <ele>529</ele>
        <time>2025-10-29T20:45:10Z</time>
      </trkpt>
      <trkpt lat="45.94764" lon="4.58186">
        <ele>529</ele>
        <time>2025-10-29T20:45:23Z</time>
      </trkpt>
      <trkpt lat="45.94767" lon="4.58186">
        <ele>529</ele>
        <time>2025-10-29T20:45:27Z</time>
      </trkpt>
      <trkpt lat="45.94768" lon="4.58188">
        <ele>530</ele>
        <time>2025-10-29T20:45:29Z</time>
      </trkpt>
      <trkpt lat="45.94768" lon="4.58191">
        <ele>530</ele>
        <time>2025-10-29T20:45:32Z</time>
      </trkpt>
      <trkpt lat="45.94789" lon="4.58188">
        <ele>530</ele>
        <time>2025-10-29T20:46:00Z</time>
      </trkpt>
      <trkpt lat="45.94791" lon="4.58189">
        <ele>530</ele>
        <time>2025-10-29T20:46:03Z</time>
      </trkpt>
      <trkpt lat="45.94793" lon="4.58201">
        <ele>531</ele>
        <time>2025-10-29T20:46:14Z</time>
      </trkpt>
      <trkpt lat="45.94794" lon="4.58196">
        <ele>531</ele>
        <time>2025-10-29T20:46:19Z</time>
      </trkpt>
      <trkpt lat="45.94793" lon="4.58183">
        <ele>529</ele>
        <time>2025-10-29T20:46:31Z</time>
      </trkpt>
      <trkpt lat="45.94794" lon="4.58183">
        <ele>529</ele>
        <time>2025-10-29T20:46:32Z</time>
      </trkpt>
      <trkpt lat="45.94793" lon="4.58183">
        <ele>529</ele>
        <time>2025-10-29T20:46:34Z</time>
      </trkpt>
      <trkpt lat="45.94794" lon="4.58196">
        <ele>531</ele>
        <time>2025-10-29T20:46:46Z</time>
      </trkpt>
      <trkpt lat="45.94793" lon="4.58201">
        <ele>531</ele>
        <time>2025-10-29T20:46:51Z</time>
      </trkpt>
      <trkpt lat="45.94791" lon="4.58206">
        <ele>532</ele>
        <time>2025-10-29T20:46:56Z</time>
      </trkpt>
      <trkpt lat="45.94797" lon="4.58225">
        <ele>534</ele>
        <time>2025-10-29T20:47:15Z</time>
      </trkpt>
      <trkpt lat="45.94799" lon="4.5824">
        <ele>536</ele>
        <time>2025-10-29T20:47:29Z</time>
      </trkpt>
      <trkpt lat="45.94798" lon="4.58252">
        <ele>537</ele>
        <time>2025-10-29T20:47:41Z</time>
      </trkpt>
      <trkpt lat="45.9481" lon="4.58256">
        <ele>536</ele>
        <time>2025-10-29T20:47:57Z</time>
      </trkpt>
      <trkpt lat="45.9482" lon="4.58262">
        <ele>536</ele>
        <time>2025-10-29T20:48:12Z</time>
      </trkpt>
      <trkpt lat="45.9483" lon="4.5827">
        <ele>535</ele>
        <time>2025-10-29T20:48:27Z</time>
      </trkpt>
      <trkpt lat="45.94832" lon="4.58276">
        <ele>535</ele>
        <time>2025-10-29T20:48:33Z</time>
      </trkpt>
      <trkpt lat="45.9485" lon="4.58283">
        <ele>532</ele>
        <time>2025-10-29T20:48:58Z</time>
      </trkpt>
      <trkpt lat="45.94855" lon="4.58285">
        <ele>531</ele>
        <time>2025-10-29T20:49:05Z</time>
      </trkpt>
      <trkpt lat="45.94858" lon="4.58296">
        <ele>531</ele>
        <time>2025-10-29T20:49:16Z</time>
      </trkpt>
      <trkpt lat="45.94864" lon="4.58304">
        <ele>530</ele>
        <time>2025-10-29T20:49:27Z</time>
      </trkpt>
      <trkpt lat="45.94869" lon="4.58307">
        <ele>529</ele>
        <time>2025-10-29T20:49:34Z</time>
      </trkpt>
      <trkpt lat="45.94878" lon="4.58303">
        <ele>528</ele>
        <time>2025-10-29T20:49:47Z</time>
      </trkpt>
      <trkpt lat="45.9488" lon="4.58303">
        <ele>528</ele>
        <time>2025-10-29T20:49:49Z</time>
      </trkpt>
      <trkpt lat="45.94892" lon="4.58299">
        <ele>527</ele>
        <time>2025-10-29T20:50:06Z</time>
      </trkpt>
      <trkpt lat="45.94895" lon="4.58319">
        <ele>527</ele>
        <time>2025-10-29T20:50:25Z</time>
      </trkpt>
      <trkpt lat="45.949" lon="4.58335">
        <ele>528</ele>
        <time>2025-10-29T20:50:41Z</time>
      </trkpt>
      <trkpt lat="45.94898" lon="4.58349">
        <ele>527</ele>
        <time>2025-10-29T20:50:54Z</time>
      </trkpt>
      <trkpt lat="45.94899" lon="4.58368">
        <ele>527</ele>
        <time>2025-10-29T20:51:12Z</time>
      </trkpt>
      <trkpt lat="45.949" lon="4.58388">
        <ele>527</ele>
        <time>2025-10-29T20:51:30Z</time>
      </trkpt>
      <trkpt lat="45.94905" lon="4.58391">
        <ele>527</ele>
        <time>2025-10-29T20:51:38Z</time>
      </trkpt>
      <trkpt lat="45.94912" lon="4.58395">
        <ele>527</ele>
        <time>2025-10-29T20:51:48Z</time>
      </trkpt>
      <trkpt lat="45.9492" lon="4.58396">
        <ele>527</ele>
        <time>2025-10-29T20:51:58Z</time>
      </trkpt>
      <trkpt lat="45.94943" lon="4.58397">
        <ele>528</ele>
        <time>2025-10-29T20:52:29Z</time>
      </trkpt>
      <trkpt lat="45.94973" lon="4.58402">
        <ele>530</ele>
        <time>2025-10-29T20:53:09Z</time>
      </trkpt>
      <trkpt lat="45.94991" lon="4.58414">
        <ele>531</ele>
        <time>2025-10-29T20:53:36Z</time>
      </trkpt>
      <trkpt lat="45.95014" lon="4.58433">
        <ele>533</ele>
        <time>2025-10-29T20:54:11Z</time>
      </trkpt>
      <trkpt lat="45.95025" lon="4.58438">
        <ele>534</ele>
        <time>2025-10-29T20:54:27Z</time>
      </trkpt>
      <trkpt lat="45.95051" lon="4.58445">
        <ele>536</ele>
        <time>2025-10-29T20:55:02Z</time>
      </trkpt>
      <trkpt lat="45.95071" lon="4.58453">
        <ele>537</ele>
        <time>2025-10-29T20:55:30Z</time>
      </trkpt>
      <trkpt lat="45.95092" lon="4.58463">
        <ele>539</ele>
        <time>2025-10-29T20:55:59Z</time>
      </trkpt>
      <trkpt lat="45.95105" lon="4.58473">
        <ele>540</ele>
        <time>2025-10-29T20:56:19Z</time>
      </trkpt>
      <trkpt lat="45.95112" lon="4.58481">
        <ele>541</ele>
        <time>2025-10-29T20:56:31Z</time>
      </trkpt>
      <trkpt lat="45.9512" lon="4.58495">
        <ele>542</ele>
        <time>2025-10-29T20:56:48Z</time>
      </trkpt>
      <trkpt lat="45.95149" lon="4.58526">
        <ele>544</ele>
        <time>2025-10-29T20:57:36Z</time>
      </trkpt>
      <trkpt lat="45.95177" lon="4.58556">
        <ele>544</ele>
        <time>2025-10-29T20:58:22Z</time>
      </trkpt>
      <trkpt lat="45.95191" lon="4.58576">
        <ele>545</ele>
        <time>2025-10-29T20:58:49Z</time>
      </trkpt>
      <trkpt lat="45.952" lon="4.58595">
        <ele>545</ele>
        <time>2025-10-29T20:59:10Z</time>
      </trkpt>
      <trkpt lat="45.95229" lon="4.5866">
        <ele>545</ele>
        <time>2025-10-29T21:00:22Z</time>
      </trkpt>
      <trkpt lat="45.95237" lon="4.58675">
        <ele>546</ele>
        <time>2025-10-29T21:00:39Z</time>
      </trkpt>
      <trkpt lat="45.95308" lon="4.58805">
        <ele>546</ele>
        <time>2025-10-29T21:03:13Z</time>
      </trkpt>
      <trkpt lat="45.95327" lon="4.58844">
        <ele>547</ele>
        <time>2025-10-29T21:03:57Z</time>
      </trkpt>
      <trkpt lat="45.95356" lon="4.5891">
        <ele>552</ele>
        <time>2025-10-29T21:05:09Z</time>
      </trkpt>
      <trkpt lat="45.95365" lon="4.58926">
        <ele>554</ele>
        <time>2025-10-29T21:05:28Z</time>
      </trkpt>
      <trkpt lat="45.95375" lon="4.58938">
        <ele>556</ele>
        <time>2025-10-29T21:05:46Z</time>
      </trkpt>
      <trkpt lat="45.95394" lon="4.58953">
        <ele>559</ele>
        <time>2025-10-29T21:06:15Z</time>
      </trkpt>
      <trkpt lat="45.9544" lon="4.58978">
        <ele>561</ele>
        <time>2025-10-29T21:07:20Z</time>
      </trkpt>
      <trkpt lat="45.95454" lon="4.58991">
        <ele>563</ele>
        <time>2025-10-29T21:07:43Z</time>
      </trkpt>
      <trkpt lat="45.95477" lon="4.59016">
        <ele>568</ele>
        <time>2025-10-29T21:08:21Z</time>
      </trkpt>
      <trkpt lat="45.95504" lon="4.59035">
        <ele>572</ele>
        <time>2025-10-29T21:09:01Z</time>
      </trkpt>
      <trkpt lat="45.95522" lon="4.59043">
        <ele>574</ele>
        <time>2025-10-29T21:09:26Z</time>
      </trkpt>
      <trkpt lat="45.95538" lon="4.59049">
        <ele>575</ele>
        <time>2025-10-29T21:09:48Z</time>
      </trkpt>
      <trkpt lat="45.95598" lon="4.59053">
        <ele>577</ele>
        <time>2025-10-29T21:11:09Z</time>
      </trkpt>
      <trkpt lat="45.95633" lon="4.59051">
        <ele>578</ele>
        <time>2025-10-29T21:11:55Z</time>
      </trkpt>
      <trkpt lat="45.95654" lon="4.59046">
        <ele>578</ele>
        <time>2025-10-29T21:12:24Z</time>
      </trkpt>
      <trkpt lat="45.95678" lon="4.59039">
        <ele>579</ele>
        <time>2025-10-29T21:12:56Z</time>
      </trkpt>
      <trkpt lat="45.9573" lon="4.59017">
        <ele>579</ele>
        <time>2025-10-29T21:14:09Z</time>
      </trkpt>
      <trkpt lat="45.95789" lon="4.59008">
        <ele>584</ele>
        <time>2025-10-29T21:15:28Z</time>
      </trkpt>
      <trkpt lat="45.9581" lon="4.59001">
        <ele>584</ele>
        <time>2025-10-29T21:15:57Z</time>
      </trkpt>
      <trkpt lat="45.95845" lon="4.58985">
        <ele>585</ele>
        <time>2025-10-29T21:16:46Z</time>
      </trkpt>
      <trkpt lat="45.95877" lon="4.58966">
        <ele>588</ele>
        <time>2025-10-29T21:17:32Z</time>
      </trkpt>
      <trkpt lat="45.95898" lon="4.58949">
        <ele>589</ele>
        <time>2025-10-29T21:18:04Z</time>
      </trkpt>
      <trkpt lat="45.95936" lon="4.58929">
        <ele>592</ele>
        <time>2025-10-29T21:18:58Z</time>
      </trkpt>
      <trkpt lat="45.95982" lon="4.58906">
        <ele>595</ele>
        <time>2025-10-29T21:20:03Z</time>
      </trkpt>
      <trkpt lat="45.96002" lon="4.58903">
        <ele>598</ele>
        <time>2025-10-29T21:20:30Z</time>
      </trkpt>
      <trkpt lat="45.9602" lon="4.58906">
        <ele>598</ele>
        <time>2025-10-29T21:20:54Z</time>
      </trkpt>
      <trkpt lat="45.96031" lon="4.58911">
        <ele>598</ele>
        <time>2025-10-29T21:21:09Z</time>
      </trkpt>
      <trkpt lat="45.9604" lon="4.58917">
        <ele>599</ele>
        <time>2025-10-29T21:21:23Z</time>
      </trkpt>
      <trkpt lat="45.96078" lon="4.58944">
        <ele>602</ele>
        <time>2025-10-29T21:22:19Z</time>
      </trkpt>
      <trkpt lat="45.96089" lon="4.5895">
        <ele>603</ele>
        <time>2025-10-29T21:22:35Z</time>
      </trkpt>
      <trkpt lat="45.96111" lon="4.58957">
        <ele>604</ele>
        <time>2025-10-29T21:23:05Z</time>
      </trkpt>
      <trkpt lat="45.96151" lon="4.58963">
        <ele>605</ele>
        <time>2025-10-29T21:23:59Z</time>
      </trkpt>
      <trkpt lat="45.96185" lon="4.58954">
        <ele>605</ele>
        <time>2025-10-29T21:24:45Z</time>
      </trkpt>
      <trkpt lat="45.96221" lon="4.58942">
        <ele>606</ele>
        <time>2025-10-29T21:25:34Z</time>
      </trkpt>
      <trkpt lat="45.96269" lon="4.58912">
        <ele>607</ele>
        <time>2025-10-29T21:26:44Z</time>
      </trkpt>
      <trkpt lat="45.96319" lon="4.5889">
        <ele>606</ele>
        <time>2025-10-29T21:27:54Z</time>
      </trkpt>
      <trkpt lat="45.96356" lon="4.5888">
        <ele>606</ele>
        <time>2025-10-29T21:28:44Z</time>
      </trkpt>
      <trkpt lat="45.96373" lon="4.58878">
        <ele>606</ele>
        <time>2025-10-29T21:29:07Z</time>
      </trkpt>
      <trkpt lat="45.96407" lon="4.58876">
        <ele>606</ele>
        <time>2025-10-29T21:29:52Z</time>
      </trkpt>
      <trkpt lat="45.96432" lon="4.58871">
        <ele>606</ele>
        <time>2025-10-29T21:30:26Z</time>
      </trkpt>
      <trkpt lat="45.96448" lon="4.5887">
        <ele>606</ele>
        <time>2025-10-29T21:30:47Z</time>
      </trkpt>
      <trkpt lat="45.96507" lon="4.58876">
        <ele>606</ele>
        <time>2025-10-29T21:32:06Z</time>
      </trkpt>
      <trkpt lat="45.96589" lon="4.58876">
        <ele>602</ele>
        <time>2025-10-29T21:33:55Z</time>
      </trkpt>
      <trkpt lat="45.96603" lon="4.58874">
        <ele>601</ele>
        <time>2025-10-29T21:34:14Z</time>
      </trkpt>
      <trkpt lat="45.96625" lon="4.58867">
        <ele>600</ele>
        <time>2025-10-29T21:34:44Z</time>
      </trkpt>
      <trkpt lat="45.96639" lon="4.58862">
        <ele>600</ele>
        <time>2025-10-29T21:35:04Z</time>
      </trkpt>
      <trkpt lat="45.9667" lon="4.58843">
        <ele>598</ele>
        <time>2025-10-29T21:35:49Z</time>
      </trkpt>
      <trkpt lat="45.9671" lon="4.58815">
        <ele>594</ele>
        <time>2025-10-29T21:36:48Z</time>
      </trkpt>
      <trkpt lat="45.96827" lon="4.58752">
        <ele>587</ele>
        <time>2025-10-29T21:39:35Z</time>
      </trkpt>
      <trkpt lat="45.96841" lon="4.58744">
        <ele>587</ele>
        <time>2025-10-29T21:39:55Z</time>
      </trkpt>
      <trkpt lat="45.96889" lon="4.58714">
        <ele>589</ele>
        <time>2025-10-29T21:41:05Z</time>
      </trkpt>
      <trkpt lat="45.96933" lon="4.58679">
        <ele>590</ele>
        <time>2025-10-29T21:42:12Z</time>
      </trkpt>
      <trkpt lat="45.96946" lon="4.58674">
        <ele>590</ele>
        <time>2025-10-29T21:42:30Z</time>
      </trkpt>
      <trkpt lat="45.96958" lon="4.58674">
        <ele>590</ele>
        <time>2025-10-29T21:42:46Z</time>
      </trkpt>
      <trkpt lat="45.96963" lon="4.58661">
        <ele>590</ele>
        <time>2025-10-29T21:42:59Z</time>
      </trkpt>
      <trkpt lat="45.96984" lon="4.58636">
        <ele>590</ele>
        <time>2025-10-29T21:43:36Z</time>
      </trkpt>
      <trkpt lat="45.97008" lon="4.58613">
        <ele>591</ele>
        <time>2025-10-29T21:44:14Z</time>
      </trkpt>
      <trkpt lat="45.97027" lon="4.58591">
        <ele>591</ele>
        <time>2025-10-29T21:44:47Z</time>
      </trkpt>
      <trkpt lat="45.97042" lon="4.58571">
        <ele>592</ele>
        <time>2025-10-29T21:45:14Z</time>
      </trkpt>
      <trkpt lat="45.9705" lon="4.58554">
        <ele>593</ele>
        <time>2025-10-29T21:45:33Z</time>
      </trkpt>
      <trkpt lat="45.97065" lon="4.58519">
        <ele>595</ele>
        <time>2025-10-29T21:46:11Z</time>
      </trkpt>
      <trkpt lat="45.97073" lon="4.58504">
        <ele>596</ele>
        <time>2025-10-29T21:46:29Z</time>
      </trkpt>
      <trkpt lat="45.97106" lon="4.58474">
        <ele>596</ele>
        <time>2025-10-29T21:47:21Z</time>
      </trkpt>
      <trkpt lat="45.97124" lon="4.58461">
        <ele>596</ele>
        <time>2025-10-29T21:47:48Z</time>
      </trkpt>
      <trkpt lat="45.97138" lon="4.58445">
        <ele>596</ele>
        <time>2025-10-29T21:48:12Z</time>
      </trkpt>
      <trkpt lat="45.97156" lon="4.58431">
        <ele>596</ele>
        <time>2025-10-29T21:48:39Z</time>
      </trkpt>
      <trkpt lat="45.97175" lon="4.58426">
        <ele>595</ele>
        <time>2025-10-29T21:49:05Z</time>
      </trkpt>
      <trkpt lat="45.97227" lon="4.58408">
        <ele>594</ele>
        <time>2025-10-29T21:50:16Z</time>
      </trkpt>
      <trkpt lat="45.97278" lon="4.58401">
        <ele>592</ele>
        <time>2025-10-29T21:51:24Z</time>
      </trkpt>
      <trkpt lat="45.97322" lon="4.58384">
        <ele>589</ele>
        <time>2025-10-29T21:52:25Z</time>
      </trkpt>
      <trkpt lat="45.97327" lon="4.58378">
        <ele>588</ele>
        <time>2025-10-29T21:52:34Z</time>
      </trkpt>
      <trkpt lat="45.97334" lon="4.58367">
        <ele>587</ele>
        <time>2025-10-29T21:52:48Z</time>
      </trkpt>
      <trkpt lat="45.97339" lon="4.58364">
        <ele>587</ele>
        <time>2025-10-29T21:52:55Z</time>
      </trkpt>
      <trkpt lat="45.97344" lon="4.58361">
        <ele>586</ele>
        <time>2025-10-29T21:53:02Z</time>
      </trkpt>
      <trkpt lat="45.9736" lon="4.58361">
        <ele>585</ele>
        <time>2025-10-29T21:53:24Z</time>
      </trkpt>
      <trkpt lat="45.97392" lon="4.58363">
        <ele>583</ele>
        <time>2025-10-29T21:54:06Z</time>
      </trkpt>
      <trkpt lat="45.97404" lon="4.58365">
        <ele>582</ele>
        <time>2025-10-29T21:54:22Z</time>
      </trkpt>
      <trkpt lat="45.97412" lon="4.58368">
        <ele>582</ele>
        <time>2025-10-29T21:54:33Z</time>
      </trkpt>
      <trkpt lat="45.97423" lon="4.58376">
        <ele>581</ele>
        <time>2025-10-29T21:54:50Z</time>
      </trkpt>
      <trkpt lat="45.9743" lon="4.58378">
        <ele>580</ele>
        <time>2025-10-29T21:54:59Z</time>
      </trkpt>
      <trkpt lat="45.97461" lon="4.58386">
        <ele>577</ele>
        <time>2025-10-29T21:55:41Z</time>
      </trkpt>
      <trkpt lat="45.97493" lon="4.58392">
        <ele>574</ele>
        <time>2025-10-29T21:56:25Z</time>
      </trkpt>
      <trkpt lat="45.97515" lon="4.584">
        <ele>572</ele>
        <time>2025-10-29T21:56:55Z</time>
      </trkpt>
      <trkpt lat="45.97525" lon="4.58402">
        <ele>572</ele>
        <time>2025-10-29T21:57:08Z</time>
      </trkpt>
      <trkpt lat="45.97551" lon="4.58403">
        <ele>570</ele>
        <time>2025-10-29T21:57:43Z</time>
      </trkpt>
      <trkpt lat="45.97575" lon="4.58398">
        <ele>569</ele>
        <time>2025-10-29T21:58:15Z</time>
      </trkpt>
      <trkpt lat="45.97588" lon="4.58397">
        <ele>568</ele>
        <time>2025-10-29T21:58:33Z</time>
      </trkpt>
      <trkpt lat="45.97601" lon="4.58399">
        <ele>567</ele>
        <time>2025-10-29T21:58:50Z</time>
      </trkpt>
      <trkpt lat="45.97629" lon="4.58395">
        <ele>565</ele>
        <time>2025-10-29T21:59:28Z</time>
      </trkpt>
      <trkpt lat="45.97693" lon="4.58392">
        <ele>558</ele>
        <time>2025-10-29T22:00:53Z</time>
      </trkpt>
      <trkpt lat="45.977" lon="4.58391">
        <ele>557</ele>
        <time>2025-10-29T22:01:03Z</time>
      </trkpt>
      <trkpt lat="45.97706" lon="4.58389">
        <ele>557</ele>
        <time>2025-10-29T22:01:11Z</time>
      </trkpt>
      <trkpt lat="45.97713" lon="4.58382">
        <ele>556</ele>
        <time>2025-10-29T22:01:22Z</time>
      </trkpt>
      <trkpt lat="45.97727" lon="4.58365">
        <ele>554</ele>
        <time>2025-10-29T22:01:47Z</time>
      </trkpt>
      <trkpt lat="45.97746" lon="4.58341">
        <ele>551</ele>
        <time>2025-10-29T22:02:20Z</time>
      </trkpt>
      <trkpt lat="45.97756" lon="4.58336">
        <ele>551</ele>
        <time>2025-10-29T22:02:34Z</time>
      </trkpt>
      <trkpt lat="45.97764" lon="4.58334">
        <ele>551</ele>
        <time>2025-10-29T22:02:45Z</time>
      </trkpt>
      <trkpt lat="45.97773" lon="4.58333">
        <ele>551</ele>
        <time>2025-10-29T22:02:57Z</time>
      </trkpt>
      <trkpt lat="45.97811" lon="4.58345">
        <ele>551</ele>
        <time>2025-10-29T22:03:49Z</time>
      </trkpt>
      <trkpt lat="45.97803" lon="4.58376">
        <ele>551</ele>
        <time>2025-10-29T22:04:20Z</time>
      </trkpt>
      <trkpt lat="45.97797" lon="4.58394">
        <ele>551</ele>
        <time>2025-10-29T22:04:38Z</time>
      </trkpt>
      <trkpt lat="45.97781" lon="4.58434">
        <ele>550</ele>
        <time>2025-10-29T22:05:21Z</time>
      </trkpt>
      <trkpt lat="45.97761" lon="4.58467">
        <ele>549</ele>
        <time>2025-10-29T22:06:02Z</time>
      </trkpt>
      <trkpt lat="45.97725" lon="4.58516">
        <ele>550</ele>
        <time>2025-10-29T22:07:08Z</time>
      </trkpt>
      <trkpt lat="45.97703" lon="4.58549">
        <ele>551</ele>
        <time>2025-10-29T22:07:50Z</time>
      </trkpt>
      <trkpt lat="45.97689" lon="4.58575">
        <ele>551</ele>
        <time>2025-10-29T22:08:21Z</time>
      </trkpt>
      <trkpt lat="45.97677" lon="4.58607">
        <ele>551</ele>
        <time>2025-10-29T22:08:55Z</time>
      </trkpt>
      <trkpt lat="45.97669" lon="4.58634">
        <ele>550</ele>
        <time>2025-10-29T22:09:22Z</time>
      </trkpt>
      <trkpt lat="45.97663" lon="4.58651">
        <ele>549</ele>
        <time>2025-10-29T22:09:40Z</time>
      </trkpt>
      <trkpt lat="45.97651" lon="4.58674">
        <ele>549</ele>
        <time>2025-10-29T22:10:06Z</time>
      </trkpt>
      <trkpt lat="45.97635" lon="4.58699">
        <ele>548</ele>
        <time>2025-10-29T22:10:38Z</time>
      </trkpt>
      <trkpt lat="45.9761" lon="4.58733">
        <ele>546</ele>
        <time>2025-10-29T22:11:24Z</time>
      </trkpt>
      <trkpt lat="45.97597" lon="4.58746">
        <ele>546</ele>
        <time>2025-10-29T22:11:45Z</time>
      </trkpt>
      <trkpt lat="45.97579" lon="4.5876">
        <ele>545</ele>
        <time>2025-10-29T22:12:12Z</time>
      </trkpt>
      <trkpt lat="45.97487" lon="4.58806">
        <ele>544</ele>
        <time>2025-10-29T22:14:22Z</time>
      </trkpt>
      <trkpt lat="45.97467" lon="4.58818">
        <ele>543</ele>
        <time>2025-10-29T22:14:51Z</time>
      </trkpt>
      <trkpt lat="45.97455" lon="4.58833">
        <ele>543</ele>
        <time>2025-10-29T22:15:12Z</time>
      </trkpt>
      <trkpt lat="45.97445" lon="4.58857">
        <ele>543</ele>
        <time>2025-10-29T22:15:38Z</time>
      </trkpt>
      <trkpt lat="45.97422" lon="4.58976">
        <ele>542</ele>
        <time>2025-10-29T22:17:33Z</time>
      </trkpt>
      <trkpt lat="45.97415" lon="4.59007">
        <ele>542</ele>
        <time>2025-10-29T22:18:03Z</time>
      </trkpt>
      <trkpt lat="45.97402" lon="4.59049">
        <ele>543</ele>
        <time>2025-10-29T22:18:46Z</time>
      </trkpt>
      <trkpt lat="45.97494" lon="4.5915">
        <ele>525</ele>
        <time>2025-10-29T22:21:20Z</time>
      </trkpt>
      <trkpt lat="45.97524" lon="4.59188">
        <ele>520</ele>
        <time>2025-10-29T22:22:13Z</time>
      </trkpt>
      <trkpt lat="45.97546" lon="4.59198">
        <ele>517</ele>
        <time>2025-10-29T22:22:44Z</time>
      </trkpt>
      <trkpt lat="45.976" lon="4.59235">
        <ele>509</ele>
        <time>2025-10-29T22:24:04Z</time>
      </trkpt>
      <trkpt lat="45.97615" lon="4.59255">
        <ele>506</ele>
        <time>2025-10-29T22:24:31Z</time>
      </trkpt>
      <trkpt lat="45.97636" lon="4.59307">
        <ele>502</ele>
        <time>2025-10-29T22:25:27Z</time>
      </trkpt>
      <trkpt lat="45.9765" lon="4.5932">
        <ele>500</ele>
        <time>2025-10-29T22:25:49Z</time>
      </trkpt>
      <trkpt lat="45.97677" lon="4.59332">
        <ele>497</ele>
        <time>2025-10-29T22:26:27Z</time>
      </trkpt>
      <trkpt lat="45.97705" lon="4.59334">
        <ele>495</ele>
        <time>2025-10-29T22:27:04Z</time>
      </trkpt>
      <trkpt lat="45.97716" lon="4.59331">
        <ele>495</ele>
        <time>2025-10-29T22:27:19Z</time>
      </trkpt>
      <trkpt lat="45.97719" lon="4.5932">
        <ele>495</ele>
        <time>2025-10-29T22:27:30Z</time>
      </trkpt>
      <trkpt lat="45.97716" lon="4.59331">
        <ele>495</ele>
        <time>2025-10-29T22:27:41Z</time>
      </trkpt>
      <trkpt lat="45.97716" lon="4.59346">
        <ele>494</ele>
        <time>2025-10-29T22:27:55Z</time>
      </trkpt>
      <trkpt lat="45.97711" lon="4.59375">
        <ele>493</ele>
        <time>2025-10-29T22:28:23Z</time>
      </trkpt>
      <trkpt lat="45.97696" lon="4.59427">
        <ele>491</ele>
        <time>2025-10-29T22:29:15Z</time>
      </trkpt>
      <trkpt lat="45.97692" lon="4.59452">
        <ele>490</ele>
        <time>2025-10-29T22:29:39Z</time>
      </trkpt>
      <trkpt lat="45.9769" lon="4.59473">
        <ele>489</ele>
        <time>2025-10-29T22:29:58Z</time>
      </trkpt>
      <trkpt lat="45.9769" lon="4.59494">
        <ele>487</ele>
        <time>2025-10-29T22:30:18Z</time>
      </trkpt>
      <trkpt lat="45.97689" lon="4.59504">
        <ele>486</ele>
        <time>2025-10-29T22:30:27Z</time>
      </trkpt>
      <trkpt lat="45.97687" lon="4.59511">
        <ele>485</ele>
        <time>2025-10-29T22:30:34Z</time>
      </trkpt>
      <trkpt lat="45.97655" lon="4.59555">
        <ele>483</ele>
        <time>2025-10-29T22:31:33Z</time>
      </trkpt>
      <trkpt lat="45.97651" lon="4.59566">
        <ele>483</ele>
        <time>2025-10-29T22:31:45Z</time>
      </trkpt>
      <trkpt lat="45.97644" lon="4.59577">
        <ele>483</ele>
        <time>2025-10-29T22:31:59Z</time>
      </trkpt>
      <trkpt lat="45.97635" lon="4.59593">
        <ele>483</ele>
        <time>2025-10-29T22:32:18Z</time>
      </trkpt>
      <trkpt lat="45.97627" lon="4.59612">
        <ele>482</ele>
        <time>2025-10-29T22:32:38Z</time>
      </trkpt>
      <trkpt lat="45.97626" lon="4.59621">
        <ele>481</ele>
        <time>2025-10-29T22:32:47Z</time>
      </trkpt>
      <trkpt lat="45.97623" lon="4.5966">
        <ele>476</ele>
        <time>2025-10-29T22:33:23Z</time>
      </trkpt>
      <trkpt lat="45.97619" lon="4.59688">
        <ele>473</ele>
        <time>2025-10-29T22:33:50Z</time>
      </trkpt>
      <trkpt lat="45.9761" lon="4.59714">
        <ele>471</ele>
        <time>2025-10-29T22:34:17Z</time>
      </trkpt>
      <trkpt lat="45.97581" lon="4.59779">
        <ele>470</ele>
        <time>2025-10-29T22:35:28Z</time>
      </trkpt>
      <trkpt lat="45.97574" lon="4.59804">
        <ele>470</ele>
        <time>2025-10-29T22:35:53Z</time>
      </trkpt>
      <trkpt lat="45.97571" lon="4.59832">
        <ele>468</ele>
        <time>2025-10-29T22:36:20Z</time>
      </trkpt>
      <trkpt lat="45.97567" lon="4.59885">
        <ele>463</ele>
        <time>2025-10-29T22:37:09Z</time>
      </trkpt>
      <trkpt lat="45.97561" lon="4.59917">
        <ele>462</ele>
        <time>2025-10-29T22:37:40Z</time>
      </trkpt>
      <trkpt lat="45.97545" lon="4.59975">
        <ele>460</ele>
        <time>2025-10-29T22:38:38Z</time>
      </trkpt>
      <trkpt lat="45.97514" lon="4.60101">
        <ele>452</ele>
        <time>2025-10-29T22:40:42Z</time>
      </trkpt>
      <trkpt lat="45.97492" lon="4.60149">
        <ele>451</ele>
        <time>2025-10-29T22:41:35Z</time>
      </trkpt>
      <trkpt lat="45.97481" lon="4.6016">
        <ele>452</ele>
        <time>2025-10-29T22:41:53Z</time>
      </trkpt>
      <trkpt lat="45.97465" lon="4.60172">
        <ele>453</ele>
        <time>2025-10-29T22:42:17Z</time>
      </trkpt>
      <trkpt lat="45.97418" lon="4.60194">
        <ele>456</ele>
        <time>2025-10-29T22:43:23Z</time>
      </trkpt>
      <trkpt lat="45.97402" lon="4.60195">
        <ele>456</ele>
        <time>2025-10-29T22:43:44Z</time>
      </trkpt>
      <trkpt lat="45.97388" lon="4.60184">
        <ele>459</ele>
        <time>2025-10-29T22:44:06Z</time>
      </trkpt>
      <trkpt lat="45.97384" lon="4.60178">
        <ele>460</ele>
        <time>2025-10-29T22:44:13Z</time>
      </trkpt>
      <trkpt lat="45.97373" lon="4.60168">
        <ele>462</ele>
        <time>2025-10-29T22:44:31Z</time>
      </trkpt>
      <trkpt lat="45.97362" lon="4.60153">
        <ele>466</ele>
        <time>2025-10-29T22:44:51Z</time>
      </trkpt>
      <trkpt lat="45.9736" lon="4.60146">
        <ele>468</ele>
        <time>2025-10-29T22:44:58Z</time>
      </trkpt>
      <trkpt lat="45.97369" lon="4.60126">
        <ele>472</ele>
        <time>2025-10-29T22:45:20Z</time>
      </trkpt>
      <trkpt lat="45.97379" lon="4.60097">
        <ele>478</ele>
        <time>2025-10-29T22:45:50Z</time>
      </trkpt>
      <trkpt lat="45.97385" lon="4.60086">
        <ele>481</ele>
        <time>2025-10-29T22:46:03Z</time>
      </trkpt>
      <trkpt lat="45.97393" lon="4.60075">
        <ele>484</ele>
        <time>2025-10-29T22:46:18Z</time>
      </trkpt>
      <trkpt lat="45.97401" lon="4.60051">
        <ele>489</ele>
        <time>2025-10-29T22:46:42Z</time>
      </trkpt>
      <trkpt lat="45.97404" lon="4.60031">
        <ele>494</ele>
        <time>2025-10-29T22:47:01Z</time>
      </trkpt>
      <trkpt lat="45.97406" lon="4.60025">
        <ele>495</ele>
        <time>2025-10-29T22:47:08Z</time>
      </trkpt>
      <trkpt lat="45.97404" lon="4.60011">
        <ele>499</ele>
        <time>2025-10-29T22:47:21Z</time>
      </trkpt>
      <trkpt lat="45.97401" lon="4.6001">
        <ele>499</ele>
        <time>2025-10-29T22:47:25Z</time>
      </trkpt>
      <trkpt lat="45.97378" lon="4.60014">
        <ele>496</ele>
        <time>2025-10-29T22:47:56Z</time>
      </trkpt>
      <trkpt lat="45.97371" lon="4.60013">
        <ele>496</ele>
        <time>2025-10-29T22:48:05Z</time>
      </trkpt>
      <trkpt lat="45.97366" lon="4.6">
        <ele>498</ele>
        <time>2025-10-29T22:48:19Z</time>
      </trkpt>
      <trkpt lat="45.97354" lon="4.59981">
        <ele>500</ele>
        <time>2025-10-29T22:48:43Z</time>
      </trkpt>
      <trkpt lat="45.97341" lon="4.59955">
        <ele>503</ele>
        <time>2025-10-29T22:49:12Z</time>
      </trkpt>
      <trkpt lat="45.9733" lon="4.59926">
        <ele>506</ele>
        <time>2025-10-29T22:49:43Z</time>
      </trkpt>
      <trkpt lat="45.97321" lon="4.59908">
        <ele>506</ele>
        <time>2025-10-29T22:50:04Z</time>
      </trkpt>
      <trkpt lat="45.9731" lon="4.59871">
        <ele>507</ele>
        <time>2025-10-29T22:50:41Z</time>
      </trkpt>
      <trkpt lat="45.97301" lon="4.59853">
        <ele>507</ele>
        <time>2025-10-29T22:51:02Z</time>
      </trkpt>
      <trkpt lat="45.97274" lon="4.59826">
        <ele>503</ele>
        <time>2025-10-29T22:51:45Z</time>
      </trkpt>
      <trkpt lat="45.97259" lon="4.59802">
        <ele>504</ele>
        <time>2025-10-29T22:52:15Z</time>
      </trkpt>
      <trkpt lat="45.97254" lon="4.59779">
        <ele>508</ele>
        <time>2025-10-29T22:52:38Z</time>
      </trkpt>
      <trkpt lat="45.97249" lon="4.59758">
        <ele>512</ele>
        <time>2025-10-29T22:52:58Z</time>
      </trkpt>
      <trkpt lat="45.97232" lon="4.59714">
        <ele>516</ele>
        <time>2025-10-29T22:53:45Z</time>
      </trkpt>
      <trkpt lat="45.97224" lon="4.59699">
        <ele>516</ele>
        <time>2025-10-29T22:54:03Z</time>
      </trkpt>
      <trkpt lat="45.97213" lon="4.5968">
        <ele>517</ele>
        <time>2025-10-29T22:54:25Z</time>
      </trkpt>
      <trkpt lat="45.97197" lon="4.59664">
        <ele>516</ele>
        <time>2025-10-29T22:54:51Z</time>
      </trkpt>
      <trkpt lat="45.97168" lon="4.59613">
        <ele>516</ele>
        <time>2025-10-29T22:55:53Z</time>
      </trkpt>
      <trkpt lat="45.97163" lon="4.59614">
        <ele>515</ele>
        <time>2025-10-29T22:55:59Z</time>
      </trkpt>
      <trkpt lat="45.97153" lon="4.59613">
        <ele>515</ele>
        <time>2025-10-29T22:56:13Z</time>
      </trkpt>
      <trkpt lat="45.97138" lon="4.59615">
        <ele>514</ele>
        <time>2025-10-29T22:56:33Z</time>
      </trkpt>
      <trkpt lat="45.97125" lon="4.59619">
        <ele>513</ele>
        <time>2025-10-29T22:56:51Z</time>
      </trkpt>
      <trkpt lat="45.97105" lon="4.59631">
        <ele>510</ele>
        <time>2025-10-29T22:57:19Z</time>
      </trkpt>
      <trkpt lat="45.97096" lon="4.59632">
        <ele>510</ele>
        <time>2025-10-29T22:57:32Z</time>
      </trkpt>
      <trkpt lat="45.97083" lon="4.59631">
        <ele>509</ele>
        <time>2025-10-29T22:57:49Z</time>
      </trkpt>
      <trkpt lat="45.97074" lon="4.5963">
        <ele>510</ele>
        <time>2025-10-29T22:58:01Z</time>
      </trkpt>
      <trkpt lat="45.97062" lon="4.5963">
        <ele>511</ele>
        <time>2025-10-29T22:58:17Z</time>
      </trkpt>
      <trkpt lat="45.97025" lon="4.59653">
        <ele>513</ele>
        <time>2025-10-29T22:59:11Z</time>
      </trkpt>
      <trkpt lat="45.9701" lon="4.59667">
        <ele>513</ele>
        <time>2025-10-29T22:59:35Z</time>
      </trkpt>
      <trkpt lat="45.96997" lon="4.59682">
        <ele>514</ele>
        <time>2025-10-29T22:59:57Z</time>
      </trkpt>
      <trkpt lat="45.96985" lon="4.59696">
        <ele>515</ele>
        <time>2025-10-29T23:00:17Z</time>
      </trkpt>
      <trkpt lat="45.96981" lon="4.59709">
        <ele>515</ele>
        <time>2025-10-29T23:00:31Z</time>
      </trkpt>
      <trkpt lat="45.96982" lon="4.59721">
        <ele>514</ele>
        <time>2025-10-29T23:00:42Z</time>
      </trkpt>
      <trkpt lat="45.96985" lon="4.59736">
        <ele>513</ele>
        <time>2025-10-29T23:00:56Z</time>
      </trkpt>
      <trkpt lat="45.96996" lon="4.59751">
        <ele>511</ele>
        <time>2025-10-29T23:01:17Z</time>
      </trkpt>
      <trkpt lat="45.97014" lon="4.59768">
        <ele>509</ele>
        <time>2025-10-29T23:01:45Z</time>
      </trkpt>
      <trkpt lat="45.97027" lon="4.59784">
        <ele>506</ele>
        <time>2025-10-29T23:02:08Z</time>
      </trkpt>
      <trkpt lat="45.97031" lon="4.59797">
        <ele>505</ele>
        <time>2025-10-29T23:02:21Z</time>
      </trkpt>
      <trkpt lat="45.97031" lon="4.59803">
        <ele>505</ele>
        <time>2025-10-29T23:02:27Z</time>
      </trkpt>
      <trkpt lat="45.97016" lon="4.59803">
        <ele>507</ele>
        <time>2025-10-29T23:02:47Z</time>
      </trkpt>
      <trkpt lat="45.97004" lon="4.5981">
        <ele>509</ele>
        <time>2025-10-29T23:03:04Z</time>
      </trkpt>
      <trkpt lat="45.9699" lon="4.59811">
        <ele>511</ele>
        <time>2025-10-29T23:03:23Z</time>
      </trkpt>
      <trkpt lat="45.96969" lon="4.59814">
        <ele>515</ele>
        <time>2025-10-29T23:03:51Z</time>
      </trkpt>
      <trkpt lat="45.96948" lon="4.59818">
        <ele>519</ele>
        <time>2025-10-29T23:04:19Z</time>
      </trkpt>
      <trkpt lat="45.96868" lon="4.5986">
        <ele>533</ele>
        <time>2025-10-29T23:06:13Z</time>
      </trkpt>
      <trkpt lat="45.96813" lon="4.59886">
        <ele>545</ele>
        <time>2025-10-29T23:07:30Z</time>
      </trkpt>
      <trkpt lat="45.96808" lon="4.59886">
        <ele>546</ele>
        <time>2025-10-29T23:07:37Z</time>
      </trkpt>
      <trkpt lat="45.96803" lon="4.59884">
        <ele>547</ele>
        <time>2025-10-29T23:07:44Z</time>
      </trkpt>
      <trkpt lat="45.96795" lon="4.5989">
        <ele>549</ele>
        <time>2025-10-29T23:07:56Z</time>
      </trkpt>
      <trkpt lat="45.9679" lon="4.59892">
        <ele>550</ele>
        <time>2025-10-29T23:08:03Z</time>
      </trkpt>
      <trkpt lat="45.96785" lon="4.59891">
        <ele>551</ele>
        <time>2025-10-29T23:08:09Z</time>
      </trkpt>
      <trkpt lat="45.96756" lon="4.59908">
        <ele>556</ele>
        <time>2025-10-29T23:08:51Z</time>
      </trkpt>
      <trkpt lat="45.96741" lon="4.59909">
        <ele>558</ele>
        <time>2025-10-29T23:09:11Z</time>
      </trkpt>
      <trkpt lat="45.9673" lon="4.59908">
        <ele>559</ele>
        <time>2025-10-29T23:09:26Z</time>
      </trkpt>
      <trkpt lat="45.96717" lon="4.59905">
        <ele>560</ele>
        <time>2025-10-29T23:09:44Z</time>
      </trkpt>
      <trkpt lat="45.96692" lon="4.59897">
        <ele>562</ele>
        <time>2025-10-29T23:10:18Z</time>
      </trkpt>
      <trkpt lat="45.96688" lon="4.59898">
        <ele>563</ele>
        <time>2025-10-29T23:10:23Z</time>
      </trkpt>
      <trkpt lat="45.96682" lon="4.59894">
        <ele>563</ele>
        <time>2025-10-29T23:10:32Z</time>
      </trkpt>
      <trkpt lat="45.96676" lon="4.59883">
        <ele>565</ele>
        <time>2025-10-29T23:10:45Z</time>
      </trkpt>
      <trkpt lat="45.96665" lon="4.59873">
        <ele>567</ele>
        <time>2025-10-29T23:11:02Z</time>
      </trkpt>
      <trkpt lat="45.9665" lon="4.59856">
        <ele>567</ele>
        <time>2025-10-29T23:11:28Z</time>
      </trkpt>
      <trkpt lat="45.96634" lon="4.59814">
        <ele>570</ele>
        <time>2025-10-29T23:12:12Z</time>
      </trkpt>
      <trkpt lat="45.96632" lon="4.59804">
        <ele>571</ele>
        <time>2025-10-29T23:12:22Z</time>
      </trkpt>
      <trkpt lat="45.96625" lon="4.59795">
        <ele>571</ele>
        <time>2025-10-29T23:12:34Z</time>
      </trkpt>
      <trkpt lat="45.96622" lon="4.5979">
        <ele>572</ele>
        <time>2025-10-29T23:12:41Z</time>
      </trkpt>
      <trkpt lat="45.9661" lon="4.59773">
        <ele>573</ele>
        <time>2025-10-29T23:13:03Z</time>
      </trkpt>
      <trkpt lat="45.96605" lon="4.59763">
        <ele>573</ele>
        <time>2025-10-29T23:13:14Z</time>
      </trkpt>
      <trkpt lat="45.96569" lon="4.59714">
        <ele>579</ele>
        <time>2025-10-29T23:14:21Z</time>
      </trkpt>
      <trkpt lat="45.96559" lon="4.59694">
        <ele>581</ele>
        <time>2025-10-29T23:14:43Z</time>
      </trkpt>
      <trkpt lat="45.96553" lon="4.59674">
        <ele>584</ele>
        <time>2025-10-29T23:15:04Z</time>
      </trkpt>
      <trkpt lat="45.96548" lon="4.59627">
        <ele>590</ele>
        <time>2025-10-29T23:15:48Z</time>
      </trkpt>
      <trkpt lat="45.96545" lon="4.59614">
        <ele>592</ele>
        <time>2025-10-29T23:16:00Z</time>
      </trkpt>
      <trkpt lat="45.96535" lon="4.59597">
        <ele>593</ele>
        <time>2025-10-29T23:16:21Z</time>
      </trkpt>
      <trkpt lat="45.96521" lon="4.5956">
        <ele>598</ele>
        <time>2025-10-29T23:17:00Z</time>
      </trkpt>
      <trkpt lat="45.96511" lon="4.59544">
        <ele>599</ele>
        <time>2025-10-29T23:17:20Z</time>
      </trkpt>
      <trkpt lat="45.96501" lon="4.59538">
        <ele>599</ele>
        <time>2025-10-29T23:17:35Z</time>
      </trkpt>
      <trkpt lat="45.96497" lon="4.59534">
        <ele>600</ele>
        <time>2025-10-29T23:17:41Z</time>
      </trkpt>
      <trkpt lat="45.96494" lon="4.59526">
        <ele>601</ele>
        <time>2025-10-29T23:17:50Z</time>
      </trkpt>
      <trkpt lat="45.96491" lon="4.59522">
        <ele>602</ele>
        <time>2025-10-29T23:17:55Z</time>
      </trkpt>
      <trkpt lat="45.9648" lon="4.59513">
        <ele>602</ele>
        <time>2025-10-29T23:18:12Z</time>
      </trkpt>
      <trkpt lat="45.96467" lon="4.59499">
        <ele>604</ele>
        <time>2025-10-29T23:18:34Z</time>
      </trkpt>
      <trkpt lat="45.96463" lon="4.59491">
        <ele>605</ele>
        <time>2025-10-29T23:18:43Z</time>
      </trkpt>
      <trkpt lat="45.9645" lon="4.59478">
        <ele>606</ele>
        <time>2025-10-29T23:19:04Z</time>
      </trkpt>
      <trkpt lat="45.96439" lon="4.59468">
        <ele>607</ele>
        <time>2025-10-29T23:19:21Z</time>
      </trkpt>
      <trkpt lat="45.96422" lon="4.59457">
        <ele>608</ele>
        <time>2025-10-29T23:19:46Z</time>
      </trkpt>
      <trkpt lat="45.9641" lon="4.5945">
        <ele>610</ele>
        <time>2025-10-29T23:20:03Z</time>
      </trkpt>
      <trkpt lat="45.96391" lon="4.59436">
        <ele>614</ele>
        <time>2025-10-29T23:20:32Z</time>
      </trkpt>
      <trkpt lat="45.96381" lon="4.5943">
        <ele>615</ele>
        <time>2025-10-29T23:20:46Z</time>
      </trkpt>
      <trkpt lat="45.96369" lon="4.59422">
        <ele>618</ele>
        <time>2025-10-29T23:21:04Z</time>
      </trkpt>
      <trkpt lat="45.96339" lon="4.59407">
        <ele>621</ele>
        <time>2025-10-29T23:21:46Z</time>
      </trkpt>
      <trkpt lat="45.96327" lon="4.59396">
        <ele>623</ele>
        <time>2025-10-29T23:22:05Z</time>
      </trkpt>
      <trkpt lat="45.96315" lon="4.59376">
        <ele>625</ele>
        <time>2025-10-29T23:22:30Z</time>
      </trkpt>
      <trkpt lat="45.96305" lon="4.59366">
        <ele>626</ele>
        <time>2025-10-29T23:22:46Z</time>
      </trkpt>
      <trkpt lat="45.9629" lon="4.59355">
        <ele>628</ele>
        <time>2025-10-29T23:23:09Z</time>
      </trkpt>
      <trkpt lat="45.96283" lon="4.59348">
        <ele>629</ele>
        <time>2025-10-29T23:23:20Z</time>
      </trkpt>
      <trkpt lat="45.96276" lon="4.59345">
        <ele>630</ele>
        <time>2025-10-29T23:23:30Z</time>
      </trkpt>
      <trkpt lat="45.9626" lon="4.59331">
        <ele>632</ele>
        <time>2025-10-29T23:23:55Z</time>
      </trkpt>
      <trkpt lat="45.96214" lon="4.5931">
        <ele>633</ele>
        <time>2025-10-29T23:24:59Z</time>
      </trkpt>
      <trkpt lat="45.96189" lon="4.59292">
        <ele>635</ele>
        <time>2025-10-29T23:25:36Z</time>
      </trkpt>
      <trkpt lat="45.9614" lon="4.59274">
        <ele>634</ele>
        <time>2025-10-29T23:26:44Z</time>
      </trkpt>
      <trkpt lat="45.96092" lon="4.59263">
        <ele>633</ele>
        <time>2025-10-29T23:27:49Z</time>
      </trkpt>
      <trkpt lat="45.96072" lon="4.5926">
        <ele>633</ele>
        <time>2025-10-29T23:28:16Z</time>
      </trkpt>
      <trkpt lat="45.9605" lon="4.59251">
        <ele>634</ele>
        <time>2025-10-29T23:28:46Z</time>
      </trkpt>
      <trkpt lat="45.9604" lon="4.59245">
        <ele>634</ele>
        <time>2025-10-29T23:29:01Z</time>
      </trkpt>
      <trkpt lat="45.96021" lon="4.59229">
        <ele>634</ele>
        <time>2025-10-29T23:29:30Z</time>
      </trkpt>
      <trkpt lat="45.96003" lon="4.5921">
        <ele>634</ele>
        <time>2025-10-29T23:30:00Z</time>
      </trkpt>
      <trkpt lat="45.95985" lon="4.59184">
        <ele>633</ele>
        <time>2025-10-29T23:30:34Z</time>
      </trkpt>
      <trkpt lat="45.95948" lon="4.59156">
        <ele>630</ele>
        <time>2025-10-29T23:31:30Z</time>
      </trkpt>
      <trkpt lat="45.95955" lon="4.59152">
        <ele>630</ele>
        <time>2025-10-29T23:31:40Z</time>
      </trkpt>
      <trkpt lat="45.95948" lon="4.59156">
        <ele>630</ele>
        <time>2025-10-29T23:31:50Z</time>
      </trkpt>
      <trkpt lat="45.95932" lon="4.59164">
        <ele>629</ele>
        <time>2025-10-29T23:32:12Z</time>
      </trkpt>
      <trkpt lat="45.95921" lon="4.59174">
        <ele>630</ele>
        <time>2025-10-29T23:32:30Z</time>
      </trkpt>
      <trkpt lat="45.95899" lon="4.59201">
        <ele>631</ele>
        <time>2025-10-29T23:33:08Z</time>
      </trkpt>
      <trkpt lat="45.95887" lon="4.59212">
        <ele>631</ele>
        <time>2025-10-29T23:33:27Z</time>
      </trkpt>
      <trkpt lat="45.95863" lon="4.59224">
        <ele>631</ele>
        <time>2025-10-29T23:34:01Z</time>
      </trkpt>
      <trkpt lat="45.95808" lon="4.5924">
        <ele>632</ele>
        <time>2025-10-29T23:35:16Z</time>
      </trkpt>
      <trkpt lat="45.95769" lon="4.59258">
        <ele>634</ele>
        <time>2025-10-29T23:36:11Z</time>
      </trkpt>
      <trkpt lat="45.95741" lon="4.59277">
        <ele>635</ele>
        <time>2025-10-29T23:36:52Z</time>
      </trkpt>
      <trkpt lat="45.95691" lon="4.59301">
        <ele>637</ele>
        <time>2025-10-29T23:38:02Z</time>
      </trkpt>
      <trkpt lat="45.95665" lon="4.59314">
        <ele>639</ele>
        <time>2025-10-29T23:38:39Z</time>
      </trkpt>
      <trkpt lat="45.95653" lon="4.59322">
        <ele>641</ele>
        <time>2025-10-29T23:38:57Z</time>
      </trkpt>
      <trkpt lat="45.95558" lon="4.59365">
        <ele>645</ele>
        <time>2025-10-29T23:41:10Z</time>
      </trkpt>
      <trkpt lat="45.95528" lon="4.5939">
        <ele>647</ele>
        <time>2025-10-29T23:41:56Z</time>
      </trkpt>
      <trkpt lat="45.95487" lon="4.59424">
        <ele>648</ele>
        <time>2025-10-29T23:42:59Z</time>
      </trkpt>
      <trkpt lat="45.95463" lon="4.59446">
        <ele>647</ele>
        <time>2025-10-29T23:43:37Z</time>
      </trkpt>
      <trkpt lat="45.95443" lon="4.59469">
        <ele>647</ele>
        <time>2025-10-29T23:44:11Z</time>
      </trkpt>
      <trkpt lat="45.95438" lon="4.59472">
        <ele>647</ele>
        <time>2025-10-29T23:44:18Z</time>
      </trkpt>
      <trkpt lat="45.95414" lon="4.59496">
        <ele>647</ele>
        <time>2025-10-29T23:44:57Z</time>
      </trkpt>
      <trkpt lat="45.95408" lon="4.59498">
        <ele>646</ele>
        <time>2025-10-29T23:45:06Z</time>
      </trkpt>
      <trkpt lat="45.95398" lon="4.59508">
        <ele>645</ele>
        <time>2025-10-29T23:45:22Z</time>
      </trkpt>
      <trkpt lat="45.9539" lon="4.59521">
        <ele>645</ele>
        <time>2025-10-29T23:45:38Z</time>
      </trkpt>
      <trkpt lat="45.95367" lon="4.59563">
        <ele>645</ele>
        <time>2025-10-29T23:46:28Z</time>
      </trkpt>
      <trkpt lat="45.95349" lon="4.59602">
        <ele>646</ele>
        <time>2025-10-29T23:47:11Z</time>
      </trkpt>
      <trkpt lat="45.95337" lon="4.59633">
        <ele>647</ele>
        <time>2025-10-29T23:47:44Z</time>
      </trkpt>
      <trkpt lat="45.95304" lon="4.59692">
        <ele>643</ele>
        <time>2025-10-29T23:48:54Z</time>
      </trkpt>
      <trkpt lat="45.95289" lon="4.59743">
        <ele>642</ele>
        <time>2025-10-29T23:49:46Z</time>
      </trkpt>
      <trkpt lat="45.95277" lon="4.59779">
        <ele>641</ele>
        <time>2025-10-29T23:50:23Z</time>
      </trkpt>
      <trkpt lat="45.95254" lon="4.59867">
        <ele>636</ele>
        <time>2025-10-29T23:51:50Z</time>
      </trkpt>
      <trkpt lat="45.95208" lon="4.60002">
        <ele>618</ele>
        <time>2025-10-29T23:54:09Z</time>
      </trkpt>
      <trkpt lat="45.95197" lon="4.6003">
        <ele>613</ele>
        <time>2025-10-29T23:54:39Z</time>
      </trkpt>
      <trkpt lat="45.95176" lon="4.60064">
        <ele>607</ele>
        <time>2025-10-29T23:55:21Z</time>
      </trkpt>
      <trkpt lat="45.95168" lon="4.60083">
        <ele>605</ele>
        <time>2025-10-29T23:55:42Z</time>
      </trkpt>
      <trkpt lat="45.95149" lon="4.60115">
        <ele>598</ele>
        <time>2025-10-29T23:56:21Z</time>
      </trkpt>
      <trkpt lat="45.95139" lon="4.60129">
        <ele>595</ele>
        <time>2025-10-29T23:56:40Z</time>
      </trkpt>
      <trkpt lat="45.95125" lon="4.60151">
        <ele>590</ele>
        <time>2025-10-29T23:57:07Z</time>
      </trkpt>
      <trkpt lat="45.95118" lon="4.60167">
        <ele>588</ele>
        <time>2025-10-29T23:57:25Z</time>
      </trkpt>
      <trkpt lat="45.95105" lon="4.60191">
        <ele>583</ele>
        <time>2025-10-29T23:57:53Z</time>
      </trkpt>
      <trkpt lat="45.95085" lon="4.60224">
        <ele>577</ele>
        <time>2025-10-29T23:58:34Z</time>
      </trkpt>
      <trkpt lat="45.95082" lon="4.60229">
        <ele>576</ele>
        <time>2025-10-29T23:58:40Z</time>
      </trkpt>
      <trkpt lat="45.95059" lon="4.60241">
        <ele>574</ele>
        <time>2025-10-29T23:59:12Z</time>
      </trkpt>
      <trkpt lat="45.9503" lon="4.60264">
        <ele>573</ele>
        <time>2025-10-29T23:59:57Z</time>
      </trkpt>
      <trkpt lat="45.95014" lon="4.60273">
        <ele>572</ele>
        <time>2025-10-30T00:00:20Z</time>
      </trkpt>
      <trkpt lat="45.95005" lon="4.60275">
        <ele>572</ele>
        <time>2025-10-30T00:00:32Z</time>
      </trkpt>
      <trkpt lat="45.95003" lon="4.60283">
        <ele>572</ele>
        <time>2025-10-30T00:00:40Z</time>
      </trkpt>
      <trkpt lat="45.94984" lon="4.60316">
        <ele>570</ele>
        <time>2025-10-30T00:01:19Z</time>
      </trkpt>
      <trkpt lat="45.94962" lon="4.60347">
        <ele>569</ele>
        <time>2025-10-30T00:02:00Z</time>
      </trkpt>
      <trkpt lat="45.94944" lon="4.60375">
        <ele>569</ele>
        <time>2025-10-30T00:02:36Z</time>
      </trkpt>
      <trkpt lat="45.94911" lon="4.6042">
        <ele>573</ele>
        <time>2025-10-30T00:03:37Z</time>
      </trkpt>
      <trkpt lat="45.949" lon="4.60441">
        <ele>570</ele>
        <time>2025-10-30T00:04:01Z</time>
      </trkpt>
      <trkpt lat="45.94863" lon="4.60496">
        <ele>568</ele>
        <time>2025-10-30T00:05:12Z</time>
      </trkpt>
      <trkpt lat="45.9483" lon="4.60552">
        <ele>572</ele>
        <time>2025-10-30T00:06:20Z</time>
      </trkpt>
      <trkpt lat="45.94819" lon="4.6058">
        <ele>572</ele>
        <time>2025-10-30T00:06:50Z</time>
      </trkpt>
      <trkpt lat="45.94813" lon="4.60623">
        <ele>573</ele>
        <time>2025-10-30T00:07:31Z</time>
      </trkpt>
      <trkpt lat="45.9481" lon="4.60642">
        <ele>573</ele>
        <time>2025-10-30T00:07:49Z</time>
      </trkpt>
      <trkpt lat="45.94807" lon="4.6065">
        <ele>573</ele>
        <time>2025-10-30T00:07:57Z</time>
      </trkpt>
      <trkpt lat="45.94805" lon="4.60655">
        <ele>573</ele>
        <time>2025-10-30T00:08:02Z</time>
      </trkpt>
      <trkpt lat="45.94805" lon="4.60655">
        <ele>573</ele>
        <time>2025-10-30T00:08:02Z</time>
      </trkpt>
      <trkpt lat="45.94804" lon="4.60679">
        <ele>575</ele>
        <time>2025-10-30T00:08:25Z</time>
      </trkpt>
      <trkpt lat="45.94785" lon="4.60778">
        <ele>587</ele>
        <time>2025-10-30T00:10:00Z</time>
      </trkpt>
      <trkpt lat="45.94775" lon="4.60797">
        <ele>589</ele>
        <time>2025-10-30T00:10:22Z</time>
      </trkpt>
      <trkpt lat="45.9474" lon="4.60825">
        <ele>593</ele>
        <time>2025-10-30T00:11:16Z</time>
      </trkpt>
      <trkpt lat="45.94701" lon="4.60853">
        <ele>589</ele>
        <time>2025-10-30T00:12:14Z</time>
      </trkpt>
      <trkpt lat="45.94655" lon="4.60883">
        <ele>586</ele>
        <time>2025-10-30T00:13:21Z</time>
      </trkpt>
      <trkpt lat="45.94639" lon="4.60902">
        <ele>584</ele>
        <time>2025-10-30T00:13:49Z</time>
      </trkpt>
      <trkpt lat="45.94619" lon="4.60923">
        <ele>582</ele>
        <time>2025-10-30T00:14:22Z</time>
      </trkpt>
      <trkpt lat="45.94593" lon="4.60936">
        <ele>578</ele>
        <time>2025-10-30T00:14:59Z</time>
      </trkpt>
      <trkpt lat="45.94547" lon="4.61047">
        <ele>572</ele>
        <time>2025-10-30T00:16:59Z</time>
      </trkpt>
      <trkpt lat="45.9455" lon="4.61067">
        <ele>573</ele>
        <time>2025-10-30T00:17:18Z</time>
      </trkpt>
      <trkpt lat="45.94546" lon="4.61074">
        <ele>573</ele>
        <time>2025-10-30T00:17:26Z</time>
      </trkpt>
      <trkpt lat="45.94535" lon="4.61085">
        <ele>572</ele>
        <time>2025-10-30T00:17:44Z</time>
      </trkpt>
      <trkpt lat="45.9449" lon="4.61147">
        <ele>566</ele>
        <time>2025-10-30T00:19:07Z</time>
      </trkpt>
      <trkpt lat="45.94472" lon="4.61162">
        <ele>564</ele>
        <time>2025-10-30T00:19:35Z</time>
      </trkpt>
      <trkpt lat="45.94467" lon="4.61169">
        <ele>564</ele>
        <time>2025-10-30T00:19:44Z</time>
      </trkpt>
      <trkpt lat="45.94462" lon="4.61181">
        <ele>562</ele>
        <time>2025-10-30T00:19:57Z</time>
      </trkpt>
      <trkpt lat="45.94462" lon="4.61189">
        <ele>562</ele>
        <time>2025-10-30T00:20:04Z</time>
      </trkpt>
      <trkpt lat="45.94455" lon="4.61194">
        <ele>561</ele>
        <time>2025-10-30T00:20:15Z</time>
      </trkpt>
      <trkpt lat="45.94451" lon="4.61201">
        <ele>561</ele>
        <time>2025-10-30T00:20:23Z</time>
      </trkpt>
      <trkpt lat="45.94447" lon="4.61208">
        <ele>561</ele>
        <time>2025-10-30T00:20:32Z</time>
      </trkpt>
      <trkpt lat="45.94442" lon="4.61212">
        <ele>560</ele>
        <time>2025-10-30T00:20:39Z</time>
      </trkpt>
      <trkpt lat="45.9443" lon="4.61228">
        <ele>560</ele>
        <time>2025-10-30T00:21:01Z</time>
      </trkpt>
      <trkpt lat="45.9442" lon="4.61235">
        <ele>560</ele>
        <time>2025-10-30T00:21:16Z</time>
      </trkpt>
      <trkpt lat="45.94395" lon="4.61267">
        <ele>554</ele>
        <time>2025-10-30T00:22:01Z</time>
      </trkpt>
      <trkpt lat="45.94385" lon="4.61284">
        <ele>552</ele>
        <time>2025-10-30T00:22:21Z</time>
      </trkpt>
      <trkpt lat="45.94362" lon="4.61306">
        <ele>548</ele>
        <time>2025-10-30T00:22:58Z</time>
      </trkpt>
      <trkpt lat="45.94319" lon="4.61359">
        <ele>539</ele>
        <time>2025-10-30T00:24:14Z</time>
      </trkpt>
      <trkpt lat="45.94297" lon="4.61397">
        <ele>533</ele>
        <time>2025-10-30T00:25:00Z</time>
      </trkpt>
      <trkpt lat="45.94284" lon="4.61413">
        <ele>531</ele>
        <time>2025-10-30T00:25:22Z</time>
      </trkpt>
      <trkpt lat="45.94282" lon="4.61419">
        <ele>531</ele>
        <time>2025-10-30T00:25:29Z</time>
      </trkpt>
      <trkpt lat="45.94275" lon="4.61428">
        <ele>529</ele>
        <time>2025-10-30T00:25:41Z</time>
      </trkpt>
      <trkpt lat="45.94244" lon="4.61495">
        <ele>520</ele>
        <time>2025-10-30T00:26:56Z</time>
      </trkpt>
      <trkpt lat="45.9424" lon="4.61494">
        <ele>519</ele>
        <time>2025-10-30T00:27:01Z</time>
      </trkpt>
      <trkpt lat="45.94233" lon="4.61496">
        <ele>517</ele>
        <time>2025-10-30T00:27:11Z</time>
      </trkpt>
      <trkpt lat="45.94227" lon="4.61492">
        <ele>516</ele>
        <time>2025-10-30T00:27:20Z</time>
      </trkpt>
      <trkpt lat="45.94219" lon="4.61492">
        <ele>513</ele>
        <time>2025-10-30T00:27:30Z</time>
      </trkpt>
      <trkpt lat="45.94212" lon="4.61518">
        <ele>509</ele>
        <time>2025-10-30T00:27:56Z</time>
      </trkpt>
      <trkpt lat="45.94209" lon="4.61543">
        <ele>505</ele>
        <time>2025-10-30T00:28:20Z</time>
      </trkpt>
      <trkpt lat="45.94202" lon="4.6157">
        <ele>500</ele>
        <time>2025-10-30T00:28:46Z</time>
      </trkpt>
      <trkpt lat="45.942" lon="4.61587">
        <ele>498</ele>
        <time>2025-10-30T00:29:02Z</time>
      </trkpt>
      <trkpt lat="45.94199" lon="4.61594">
        <ele>497</ele>
        <time>2025-10-30T00:29:09Z</time>
      </trkpt>
      <trkpt lat="45.94188" lon="4.61606">
        <ele>493</ele>
        <time>2025-10-30T00:29:28Z</time>
      </trkpt>
      <trkpt lat="45.94178" lon="4.61613">
        <ele>491</ele>
        <time>2025-10-30T00:29:42Z</time>
      </trkpt>
      <trkpt lat="45.94167" lon="4.61618">
        <ele>488</ele>
        <time>2025-10-30T00:29:58Z</time>
      </trkpt>
      <trkpt lat="45.94157" lon="4.61625">
        <ele>486</ele>
        <time>2025-10-30T00:30:13Z</time>
      </trkpt>
      <trkpt lat="45.94136" lon="4.61622">
        <ele>482</ele>
        <time>2025-10-30T00:30:41Z</time>
      </trkpt>
      <trkpt lat="45.94128" lon="4.61623">
        <ele>480</ele>
        <time>2025-10-30T00:30:51Z</time>
      </trkpt>
      <trkpt lat="45.94098" lon="4.61632">
        <ele>475</ele>
        <time>2025-10-30T00:31:32Z</time>
      </trkpt>
      <trkpt lat="45.94089" lon="4.61638">
        <ele>473</ele>
        <time>2025-10-30T00:31:46Z</time>
      </trkpt>
      <trkpt lat="45.9407" lon="4.61653">
        <ele>471</ele>
        <time>2025-10-30T00:32:15Z</time>
      </trkpt>
      <trkpt lat="45.94042" lon="4.61656">
        <ele>468</ele>
        <time>2025-10-30T00:32:52Z</time>
      </trkpt>
      <trkpt lat="45.9403" lon="4.61665">
        <ele>467</ele>
        <time>2025-10-30T00:33:10Z</time>
      </trkpt>
      <trkpt lat="45.94021" lon="4.61682">
        <ele>465</ele>
        <time>2025-10-30T00:33:30Z</time>
      </trkpt>
      <trkpt lat="45.94019" lon="4.61689">
        <ele>465</ele>
        <time>2025-10-30T00:33:37Z</time>
      </trkpt>
      <trkpt lat="45.94015" lon="4.61699">
        <ele>464</ele>
        <time>2025-10-30T00:33:48Z</time>
      </trkpt>
      <trkpt lat="45.94019" lon="4.61689">
        <ele>465</ele>
        <time>2025-10-30T00:33:58Z</time>
      </trkpt>
      <trkpt lat="45.94021" lon="4.61682">
        <ele>465</ele>
        <time>2025-10-30T00:34:05Z</time>
      </trkpt>
      <trkpt lat="45.94018" lon="4.61678">
        <ele>465</ele>
        <time>2025-10-30T00:34:11Z</time>
      </trkpt>
      <trkpt lat="45.94018" lon="4.61676">
        <ele>465</ele>
        <time>2025-10-30T00:34:13Z</time>
      </trkpt>
      <trkpt lat="45.94002" lon="4.61669">
        <ele>464</ele>
        <time>2025-10-30T00:34:35Z</time>
      </trkpt>
      <trkpt lat="45.93996" lon="4.61671">
        <ele>463</ele>
        <time>2025-10-30T00:34:43Z</time>
      </trkpt>
      <trkpt lat="45.93991" lon="4.61659">
        <ele>462</ele>
        <time>2025-10-30T00:34:56Z</time>
      </trkpt>
      <trkpt lat="45.9398" lon="4.61647">
        <ele>460</ele>
        <time>2025-10-30T00:35:15Z</time>
      </trkpt>
      <trkpt lat="45.93974" lon="4.61641">
        <ele>459</ele>
        <time>2025-10-30T00:35:24Z</time>
      </trkpt>
      <trkpt lat="45.93964" lon="4.61627">
        <ele>456</ele>
        <time>2025-10-30T00:35:43Z</time>
      </trkpt>
      <trkpt lat="45.93975" lon="4.61612">
        <ele>457</ele>
        <time>2025-10-30T00:36:03Z</time>
      </trkpt>
      <trkpt lat="45.93992" lon="4.61573">
        <ele>458</ele>
        <time>2025-10-30T00:36:46Z</time>
      </trkpt>
      <trkpt lat="45.93991" lon="4.61545">
        <ele>457</ele>
        <time>2025-10-30T00:37:12Z</time>
      </trkpt>
      <trkpt lat="45.93985" lon="4.61494">
        <ele>455</ele>
        <time>2025-10-30T00:38:00Z</time>
      </trkpt>
      <trkpt lat="45.93984" lon="4.61465">
        <ele>455</ele>
        <time>2025-10-30T00:38:27Z</time>
      </trkpt>
      <trkpt lat="45.93981" lon="4.61456">
        <ele>455</ele>
        <time>2025-10-30T00:38:36Z</time>
      </trkpt>
      <trkpt lat="45.93983" lon="4.61454">
        <ele>455</ele>
        <time>2025-10-30T00:38:39Z</time>
      </trkpt>
      <trkpt lat="45.93984" lon="4.61451">
        <ele>455</ele>
        <time>2025-10-30T00:38:42Z</time>
      </trkpt>
      <trkpt lat="45.93985" lon="4.61448">
        <ele>455</ele>
        <time>2025-10-30T00:38:46Z</time>
      </trkpt>
      <trkpt lat="45.93985" lon="4.61444">
        <ele>455</ele>
        <time>2025-10-30T00:38:49Z</time>
      </trkpt>
      <trkpt lat="45.93983" lon="4.61441">
        <ele>455</ele>
        <time>2025-10-30T00:38:53Z</time>
      </trkpt>
      <trkpt lat="45.93981" lon="4.61439">
        <ele>455</ele>
        <time>2025-10-30T00:38:56Z</time>
      </trkpt>
      <trkpt lat="45.93987" lon="4.6142">
        <ele>455</ele>
        <time>2025-10-30T00:39:16Z</time>
      </trkpt>
      <trkpt lat="45.93993" lon="4.61402">
        <ele>456</ele>
        <time>2025-10-30T00:39:34Z</time>
      </trkpt>
      <trkpt lat="45.93991" lon="4.61392">
        <ele>456</ele>
        <time>2025-10-30T00:39:44Z</time>
      </trkpt>
      <trkpt lat="45.93976" lon="4.61308">
        <ele>454</ele>
        <time>2025-10-30T00:41:04Z</time>
      </trkpt>
      <trkpt lat="45.93966" lon="4.61258">
        <ele>455</ele>
        <time>2025-10-30T00:41:53Z</time>
      </trkpt>
      <trkpt lat="45.93958" lon="4.61228">
        <ele>454</ele>
        <time>2025-10-30T00:42:23Z</time>
      </trkpt>
      <trkpt lat="45.93949" lon="4.61213">
        <ele>453</ele>
        <time>2025-10-30T00:42:41Z</time>
      </trkpt>
      <trkpt lat="45.93941" lon="4.61203">
        <ele>452</ele>
        <time>2025-10-30T00:42:55Z</time>
      </trkpt>
      <trkpt lat="45.93929" lon="4.61193">
        <ele>451</ele>
        <time>2025-10-30T00:43:14Z</time>
      </trkpt>
      <trkpt lat="45.93918" lon="4.61179">
        <ele>449</ele>
        <time>2025-10-30T00:43:33Z</time>
      </trkpt>
      <trkpt lat="45.93913" lon="4.61157">
        <ele>447</ele>
        <time>2025-10-30T00:43:55Z</time>
      </trkpt>
      <trkpt lat="45.93912" lon="4.61148">
        <ele>446</ele>
        <time>2025-10-30T00:44:03Z</time>
      </trkpt>
      <trkpt lat="45.93912" lon="4.61126">
        <ele>445</ele>
        <time>2025-10-30T00:44:24Z</time>
      </trkpt>
      <trkpt lat="45.93923" lon="4.61098">
        <ele>445</ele>
        <time>2025-10-30T00:44:53Z</time>
      </trkpt>
      <trkpt lat="45.93927" lon="4.61084">
        <ele>446</ele>
        <time>2025-10-30T00:45:07Z</time>
      </trkpt>
      <trkpt lat="45.93939" lon="4.61014">
        <ele>443</ele>
        <time>2025-10-30T00:46:14Z</time>
      </trkpt>
      <trkpt lat="45.93942" lon="4.60973">
        <ele>439</ele>
        <time>2025-10-30T00:46:53Z</time>
      </trkpt>
      <trkpt lat="45.93953" lon="4.60898">
        <ele>434</ele>
        <time>2025-10-30T00:48:04Z</time>
      </trkpt>
      <trkpt lat="45.93959" lon="4.60812">
        <ele>427</ele>
        <time>2025-10-30T00:49:24Z</time>
      </trkpt>
      <trkpt lat="45.93964" lon="4.60788">
        <ele>425</ele>
        <time>2025-10-30T00:49:47Z</time>
      </trkpt>
      <trkpt lat="45.93976" lon="4.60756">
        <ele>424</ele>
        <time>2025-10-30T00:50:21Z</time>
      </trkpt>
      <trkpt lat="45.94015" lon="4.60691">
        <ele>428</ele>
        <time>2025-10-30T00:51:41Z</time>
      </trkpt>
      <trkpt lat="45.94019" lon="4.60675">
        <ele>428</ele>
        <time>2025-10-30T00:51:56Z</time>
      </trkpt>
      <trkpt lat="45.94016" lon="4.60658">
        <ele>427</ele>
        <time>2025-10-30T00:52:13Z</time>
      </trkpt>
      <trkpt lat="45.94005" lon="4.60646">
        <ele>427</ele>
        <time>2025-10-30T00:52:31Z</time>
      </trkpt>
      <trkpt lat="45.93989" lon="4.60483">
        <ele>447</ele>
        <time>2025-10-30T00:55:04Z</time>
      </trkpt>
      <trkpt lat="45.94026" lon="4.60473">
        <ele>448</ele>
        <time>2025-10-30T00:55:54Z</time>
      </trkpt>
      <trkpt lat="45.94055" lon="4.60466">
        <ele>450</ele>
        <time>2025-10-30T00:56:33Z</time>
      </trkpt>
      <trkpt lat="45.94065" lon="4.60458">
        <ele>452</ele>
        <time>2025-10-30T00:56:49Z</time>
      </trkpt>
      <trkpt lat="45.94071" lon="4.6044">
        <ele>455</ele>
        <time>2025-10-30T00:57:07Z</time>
      </trkpt>
      <trkpt lat="45.94076" lon="4.60421">
        <ele>459</ele>
        <time>2025-10-30T00:57:26Z</time>
      </trkpt>
      <trkpt lat="45.94117" lon="4.60391">
        <ele>464</ele>
        <time>2025-10-30T00:58:27Z</time>
      </trkpt>
      <trkpt lat="45.94105" lon="4.60344">
        <ele>477</ele>
        <time>2025-10-30T00:59:14Z</time>
      </trkpt>
      <trkpt lat="45.94097" lon="4.60342">
        <ele>478</ele>
        <time>2025-10-30T00:59:25Z</time>
      </trkpt>
      <trkpt lat="45.94082" lon="4.60332">
        <ele>482</ele>
        <time>2025-10-30T00:59:47Z</time>
      </trkpt>
      <trkpt lat="45.94071" lon="4.60316">
        <ele>485</ele>
        <time>2025-10-30T01:00:08Z</time>
      </trkpt>
      <trkpt lat="45.94055" lon="4.60251">
        <ele>496</ele>
        <time>2025-10-30T01:01:12Z</time>
      </trkpt>
      <trkpt lat="45.94046" lon="4.60236">
        <ele>497</ele>
        <time>2025-10-30T01:01:30Z</time>
      </trkpt>
      <trkpt lat="45.94017" lon="4.60158">
        <ele>501</ele>
        <time>2025-10-30T01:02:52Z</time>
      </trkpt>
      <trkpt lat="45.94011" lon="4.60143">
        <ele>501</ele>
        <time>2025-10-30T01:03:08Z</time>
      </trkpt>
      <trkpt lat="45.94013" lon="4.60133">
        <ele>501</ele>
        <time>2025-10-30T01:03:18Z</time>
      </trkpt>
      <trkpt lat="45.94009" lon="4.60133">
        <ele>501</ele>
        <time>2025-10-30T01:03:23Z</time>
      </trkpt>
      <trkpt lat="45.93962" lon="4.60149">
        <ele>504</ele>
        <time>2025-10-30T01:04:28Z</time>
      </trkpt>
      <trkpt lat="45.93952" lon="4.60153">
        <ele>505</ele>
        <time>2025-10-30T01:04:41Z</time>
      </trkpt>
      <trkpt lat="45.93906" lon="4.60177">
        <ele>507</ele>
        <time>2025-10-30T01:05:47Z</time>
      </trkpt>
      <trkpt lat="45.93847" lon="4.60203">
        <ele>508</ele>
        <time>2025-10-30T01:07:09Z</time>
      </trkpt>
      <trkpt lat="45.93824" lon="4.60212">
        <ele>509</ele>
        <time>2025-10-30T01:07:41Z</time>
      </trkpt>
      <trkpt lat="45.9379" lon="4.60221">
        <ele>509</ele>
        <time>2025-10-30T01:08:27Z</time>
      </trkpt>
      <trkpt lat="45.93761" lon="4.60229">
        <ele>510</ele>
        <time>2025-10-30T01:09:06Z</time>
      </trkpt>
      <trkpt lat="45.93722" lon="4.60246">
        <ele>511</ele>
        <time>2025-10-30T01:10:01Z</time>
      </trkpt>
      <trkpt lat="45.93693" lon="4.60253">
        <ele>511</ele>
        <time>2025-10-30T01:10:40Z</time>
      </trkpt>
      <trkpt lat="45.93674" lon="4.60255">
        <ele>511</ele>
        <time>2025-10-30T01:11:05Z</time>
      </trkpt>
      <trkpt lat="45.93655" lon="4.60255">
        <ele>512</ele>
        <time>2025-10-30T01:11:31Z</time>
      </trkpt>
      <trkpt lat="45.93627" lon="4.60254">
        <ele>514</ele>
        <time>2025-10-30T01:12:08Z</time>
      </trkpt>
      <trkpt lat="45.93602" lon="4.60261">
        <ele>514</ele>
        <time>2025-10-30T01:12:42Z</time>
      </trkpt>
      <trkpt lat="45.93568" lon="4.60263">
        <ele>515</ele>
        <time>2025-10-30T01:13:28Z</time>
      </trkpt>
      <trkpt lat="45.93528" lon="4.60262">
        <ele>514</ele>
        <time>2025-10-30T01:14:21Z</time>
      </trkpt>
      <trkpt lat="45.93508" lon="4.60264">
        <ele>514</ele>
        <time>2025-10-30T01:14:48Z</time>
      </trkpt>
      <trkpt lat="45.93501" lon="4.60259">
        <ele>513</ele>
        <time>2025-10-30T01:14:58Z</time>
      </trkpt>
      <trkpt lat="45.93495" lon="4.60264">
        <ele>513</ele>
        <time>2025-10-30T01:15:07Z</time>
      </trkpt>
      <trkpt lat="45.93461" lon="4.60272">
        <ele>513</ele>
        <time>2025-10-30T01:15:53Z</time>
      </trkpt>
      <trkpt lat="45.93282" lon="4.60332">
        <ele>519</ele>
        <time>2025-10-30T01:19:59Z</time>
      </trkpt>
      <trkpt lat="45.93222" lon="4.60355">
        <ele>520</ele>
        <time>2025-10-30T01:21:21Z</time>
      </trkpt>
      <trkpt lat="45.93184" lon="4.60362">
        <ele>520</ele>
        <time>2025-10-30T01:22:13Z</time>
      </trkpt>
      <trkpt lat="45.93145" lon="4.60375">
        <ele>519</ele>
        <time>2025-10-30T01:23:06Z</time>
      </trkpt>
      <trkpt lat="45.93104" lon="4.60394">
        <ele>518</ele>
        <time>2025-10-30T01:24:04Z</time>
      </trkpt>
      <trkpt lat="45.93091" lon="4.60394">
        <ele>517</ele>
        <time>2025-10-30T01:24:21Z</time>
      </trkpt>
      <trkpt lat="45.93033" lon="4.6038">
        <ele>501</ele>
        <time>2025-10-30T01:25:39Z</time>
      </trkpt>
      <trkpt lat="45.93019" lon="4.60381">
        <ele>497</ele>
        <time>2025-10-30T01:25:58Z</time>
      </trkpt>
      <trkpt lat="45.93008" lon="4.60392">
        <ele>494</ele>
        <time>2025-10-30T01:26:16Z</time>
      </trkpt>
      <trkpt lat="45.93" lon="4.60393">
        <ele>492</ele>
        <time>2025-10-30T01:26:27Z</time>
      </trkpt>
      <trkpt lat="45.92994" lon="4.60404">
        <ele>491</ele>
        <time>2025-10-30T01:26:40Z</time>
      </trkpt>
      <trkpt lat="45.92984" lon="4.60466">
        <ele>485</ele>
        <time>2025-10-30T01:27:39Z</time>
      </trkpt>
      <trkpt lat="45.92953" lon="4.60443">
        <ele>478</ele>
        <time>2025-10-30T01:28:25Z</time>
      </trkpt>
      <trkpt lat="45.92923" lon="4.60419">
        <ele>471</ele>
        <time>2025-10-30T01:29:11Z</time>
      </trkpt>
      <trkpt lat="45.9289" lon="4.60391">
        <ele>466</ele>
        <time>2025-10-30T01:30:02Z</time>
      </trkpt>
      <trkpt lat="45.92844" lon="4.60353">
        <ele>461</ele>
        <time>2025-10-30T01:31:13Z</time>
      </trkpt>
      <trkpt lat="45.92832" lon="4.60327">
        <ele>460</ele>
        <time>2025-10-30T01:31:42Z</time>
      </trkpt>
      <trkpt lat="45.92772" lon="4.60343">
        <ele>455</ele>
        <time>2025-10-30T01:33:03Z</time>
      </trkpt>
      <trkpt lat="45.9276" lon="4.60353">
        <ele>454</ele>
        <time>2025-10-30T01:33:22Z</time>
      </trkpt>
      <trkpt lat="45.92761" lon="4.60344">
        <ele>455</ele>
        <time>2025-10-30T01:33:30Z</time>
      </trkpt>
      <trkpt lat="45.92766" lon="4.60312">
        <ele>455</ele>
        <time>2025-10-30T01:34:01Z</time>
      </trkpt>
      <trkpt lat="45.9277" lon="4.60268">
        <ele>454</ele>
        <time>2025-10-30T01:34:42Z</time>
      </trkpt>
      <trkpt lat="45.9277" lon="4.60238">
        <ele>454</ele>
        <time>2025-10-30T01:35:10Z</time>
      </trkpt>
      <trkpt lat="45.92763" lon="4.60193">
        <ele>451</ele>
        <time>2025-10-30T01:35:53Z</time>
      </trkpt>
      <trkpt lat="45.92754" lon="4.60143">
        <ele>447</ele>
        <time>2025-10-30T01:36:41Z</time>
      </trkpt>
      <trkpt lat="45.92751" lon="4.60143">
        <ele>447</ele>
        <time>2025-10-30T01:36:45Z</time>
      </trkpt>
      <trkpt lat="45.92748" lon="4.60138">
        <ele>446</ele>
        <time>2025-10-30T01:36:51Z</time>
      </trkpt>
      <trkpt lat="45.92735" lon="4.60131">
        <ele>444</ele>
        <time>2025-10-30T01:37:09Z</time>
      </trkpt>
      <trkpt lat="45.92727" lon="4.60124">
        <ele>442</ele>
        <time>2025-10-30T01:37:22Z</time>
      </trkpt>
      <trkpt lat="45.92696" lon="4.60074">
        <ele>435</ele>
        <time>2025-10-30T01:38:24Z</time>
      </trkpt>
      <trkpt lat="45.92688" lon="4.60063">
        <ele>433</ele>
        <time>2025-10-30T01:38:39Z</time>
      </trkpt>
      <trkpt lat="45.9267" lon="4.60066">
        <ele>431</ele>
        <time>2025-10-30T01:39:03Z</time>
      </trkpt>
      <trkpt lat="45.92666" lon="4.60054">
        <ele>430</ele>
        <time>2025-10-30T01:39:15Z</time>
      </trkpt>
      <trkpt lat="45.92664" lon="4.60052">
        <ele>429</ele>
        <time>2025-10-30T01:39:18Z</time>
      </trkpt>
      <trkpt lat="45.92642" lon="4.60049">
        <ele>427</ele>
        <time>2025-10-30T01:39:48Z</time>
      </trkpt>
      <trkpt lat="45.92615" lon="4.60046">
        <ele>425</ele>
        <time>2025-10-30T01:40:24Z</time>
      </trkpt>
      <trkpt lat="45.92602" lon="4.60042">
        <ele>423</ele>
        <time>2025-10-30T01:40:42Z</time>
      </trkpt>
      <trkpt lat="45.92596" lon="4.6004">
        <ele>423</ele>
        <time>2025-10-30T01:40:50Z</time>
      </trkpt>
      <trkpt lat="45.92578" lon="4.6007">
        <ele>424</ele>
        <time>2025-10-30T01:41:27Z</time>
      </trkpt>
      <trkpt lat="45.92564" lon="4.60095">
        <ele>423</ele>
        <time>2025-10-30T01:41:57Z</time>
      </trkpt>
      <trkpt lat="45.92559" lon="4.60108">
        <ele>422</ele>
        <time>2025-10-30T01:42:10Z</time>
      </trkpt>
      <trkpt lat="45.92559" lon="4.60114">
        <ele>421</ele>
        <time>2025-10-30T01:42:16Z</time>
      </trkpt>
      <trkpt lat="45.92552" lon="4.60114">
        <ele>421</ele>
        <time>2025-10-30T01:42:25Z</time>
      </trkpt>
      <trkpt lat="45.92548" lon="4.60111">
        <ele>420</ele>
        <time>2025-10-30T01:42:31Z</time>
      </trkpt>
      <trkpt lat="45.925" lon="4.60068">
        <ele>416</ele>
        <time>2025-10-30T01:43:47Z</time>
      </trkpt>
      <trkpt lat="45.92457" lon="4.60014">
        <ele>409</ele>
        <time>2025-10-30T01:45:03Z</time>
      </trkpt>
      <trkpt lat="45.92389" lon="4.59948">
        <ele>402</ele>
        <time>2025-10-30T01:46:52Z</time>
      </trkpt>
      <trkpt lat="45.92289" lon="4.59854">
        <ele>395</ele>
        <time>2025-10-30T01:49:32Z</time>
      </trkpt>
      <trkpt lat="45.92232" lon="4.59809">
        <ele>390</ele>
        <time>2025-10-30T01:50:59Z</time>
      </trkpt>
      <trkpt lat="45.92202" lon="4.59782">
        <ele>389</ele>
        <time>2025-10-30T01:51:46Z</time>
      </trkpt>
      <trkpt lat="45.92196" lon="4.59774">
        <ele>388</ele>
        <time>2025-10-30T01:51:57Z</time>
      </trkpt>
      <trkpt lat="45.92173" lon="4.5975">
        <ele>388</ele>
        <time>2025-10-30T01:52:35Z</time>
      </trkpt>
      <trkpt lat="45.92169" lon="4.59748">
        <ele>388</ele>
        <time>2025-10-30T01:52:40Z</time>
      </trkpt>
      <trkpt lat="45.92142" lon="4.59734">
        <ele>385</ele>
        <time>2025-10-30T01:53:19Z</time>
      </trkpt>
      <trkpt lat="45.92119" lon="4.59728">
        <ele>382</ele>
        <time>2025-10-30T01:53:50Z</time>
      </trkpt>
      <trkpt lat="45.92102" lon="4.59729">
        <ele>380</ele>
        <time>2025-10-30T01:54:13Z</time>
      </trkpt>
      <trkpt lat="45.921" lon="4.59726">
        <ele>380</ele>
        <time>2025-10-30T01:54:17Z</time>
      </trkpt>
      <trkpt lat="45.92099" lon="4.59717">
        <ele>379</ele>
        <time>2025-10-30T01:54:25Z</time>
      </trkpt>
      <trkpt lat="45.92094" lon="4.59688">
        <ele>377</ele>
        <time>2025-10-30T01:54:53Z</time>
      </trkpt>
      <trkpt lat="45.92094" lon="4.59681">
        <ele>376</ele>
        <time>2025-10-30T01:54:59Z</time>
      </trkpt>
      <trkpt lat="45.92096" lon="4.59671">
        <ele>376</ele>
        <time>2025-10-30T01:55:09Z</time>
      </trkpt>
      <trkpt lat="45.921" lon="4.59661">
        <ele>375</ele>
        <time>2025-10-30T01:55:20Z</time>
      </trkpt>
      <trkpt lat="45.92102" lon="4.59654">
        <ele>375</ele>
        <time>2025-10-30T01:55:27Z</time>
      </trkpt>
      <trkpt lat="45.92101" lon="4.59639">
        <ele>374</ele>
        <time>2025-10-30T01:55:41Z</time>
      </trkpt>
      <trkpt lat="45.92104" lon="4.5963">
        <ele>373</ele>
        <time>2025-10-30T01:55:50Z</time>
      </trkpt>
      <trkpt lat="45.92109" lon="4.59605">
        <ele>371</ele>
        <time>2025-10-30T01:56:14Z</time>
      </trkpt>
      <trkpt lat="45.92114" lon="4.59547">
        <ele>368</ele>
        <time>2025-10-30T01:57:08Z</time>
      </trkpt>
      <trkpt lat="45.92117" lon="4.59519">
        <ele>367</ele>
        <time>2025-10-30T01:57:35Z</time>
      </trkpt>
      <trkpt lat="45.92124" lon="4.59485">
        <ele>365</ele>
        <time>2025-10-30T01:58:07Z</time>
      </trkpt>
      <trkpt lat="45.92127" lon="4.59477">
        <ele>364</ele>
        <time>2025-10-30T01:58:16Z</time>
      </trkpt>
      <trkpt lat="45.92134" lon="4.59465">
        <ele>364</ele>
        <time>2025-10-30T01:58:30Z</time>
      </trkpt>
      <trkpt lat="45.92153" lon="4.59444">
        <ele>363</ele>
        <time>2025-10-30T01:59:02Z</time>
      </trkpt>
      <trkpt lat="45.92313" lon="4.59417">
        <ele>365</ele>
        <time>2025-10-30T02:02:37Z</time>
      </trkpt>
      <trkpt lat="45.92353" lon="4.59412">
        <ele>363</ele>
        <time>2025-10-30T02:03:31Z</time>
      </trkpt>
      <trkpt lat="45.92401" lon="4.5942">
        <ele>362</ele>
        <time>2025-10-30T02:04:35Z</time>
      </trkpt>
      <trkpt lat="45.92453" lon="4.59444">
        <ele>363</ele>
        <time>2025-10-30T02:05:48Z</time>
      </trkpt>
      <trkpt lat="45.92477" lon="4.59453">
        <ele>362</ele>
        <time>2025-10-30T02:06:21Z</time>
      </trkpt>
      <trkpt lat="45.92503" lon="4.5945">
        <ele>360</ele>
        <time>2025-10-30T02:06:56Z</time>
      </trkpt>
      <trkpt lat="45.92527" lon="4.59453">
        <ele>360</ele>
        <time>2025-10-30T02:07:28Z</time>
      </trkpt>
      <trkpt lat="45.92571" lon="4.59472">
        <ele>361</ele>
        <time>2025-10-30T02:08:30Z</time>
      </trkpt>
      <trkpt lat="45.92594" lon="4.59478">
        <ele>361</ele>
        <time>2025-10-30T02:09:01Z</time>
      </trkpt>
      <trkpt lat="45.92621" lon="4.59472">
        <ele>361</ele>
        <time>2025-10-30T02:09:37Z</time>
      </trkpt>
      <trkpt lat="45.92634" lon="4.59463">
        <ele>360</ele>
        <time>2025-10-30T02:09:57Z</time>
      </trkpt>
      <trkpt lat="45.92636" lon="4.59461">
        <ele>360</ele>
        <time>2025-10-30T02:10:00Z</time>
      </trkpt>
      <trkpt lat="45.92636" lon="4.59461">
        <ele>360</ele>
        <time>2025-10-30T02:10:00Z</time>
      </trkpt>
      <trkpt lat="45.92638" lon="4.59458">
        <ele>360</ele>
        <time>2025-10-30T02:10:04Z</time>
      </trkpt>
      <trkpt lat="45.92645" lon="4.59448">
        <ele>359</ele>
        <time>2025-10-30T02:10:17Z</time>
      </trkpt>
      <trkpt lat="45.9266" lon="4.59413">
        <ele>356</ele>
        <time>2025-10-30T02:10:55Z</time>
      </trkpt>
      <trkpt lat="45.92672" lon="4.59397">
        <ele>355</ele>
        <time>2025-10-30T02:11:17Z</time>
      </trkpt>
      <trkpt lat="45.92687" lon="4.59384">
        <ele>355</ele>
        <time>2025-10-30T02:11:40Z</time>
      </trkpt>
      <trkpt lat="45.92699" lon="4.59377">
        <ele>356</ele>
        <time>2025-10-30T02:11:58Z</time>
      </trkpt>
      <trkpt lat="45.92717" lon="4.59374">
        <ele>357</ele>
        <time>2025-10-30T02:12:22Z</time>
      </trkpt>
      <trkpt lat="45.92729" lon="4.59368">
        <ele>358</ele>
        <time>2025-10-30T02:12:39Z</time>
      </trkpt>
      <trkpt lat="45.92754" lon="4.59347">
        <ele>355</ele>
        <time>2025-10-30T02:13:17Z</time>
      </trkpt>
      <trkpt lat="45.92761" lon="4.59339">
        <ele>353</ele>
        <time>2025-10-30T02:13:29Z</time>
      </trkpt>
      <trkpt lat="45.92766" lon="4.59329">
        <ele>351</ele>
        <time>2025-10-30T02:13:41Z</time>
      </trkpt>
      <trkpt lat="45.92767" lon="4.59324">
        <ele>351</ele>
        <time>2025-10-30T02:13:46Z</time>
      </trkpt>
      <trkpt lat="45.92767" lon="4.59324">
        <ele>351</ele>
        <time>2025-10-30T02:13:46Z</time>
      </trkpt>
      <trkpt lat="45.92768" lon="4.59323">
        <ele>351</ele>
        <time>2025-10-30T02:13:47Z</time>
      </trkpt>
      <trkpt lat="45.92768" lon="4.59321">
        <ele>350</ele>
        <time>2025-10-30T02:13:49Z</time>
      </trkpt>
      <trkpt lat="45.92773" lon="4.59298">
        <ele>349</ele>
        <time>2025-10-30T02:14:11Z</time>
      </trkpt>
      <trkpt lat="45.92774" lon="4.59291">
        <ele>349</ele>
        <time>2025-10-30T02:14:18Z</time>
      </trkpt>
      <trkpt lat="45.92775" lon="4.59281">
        <ele>349</ele>
        <time>2025-10-30T02:14:27Z</time>
      </trkpt>
      <trkpt lat="45.92773" lon="4.5926">
        <ele>348</ele>
        <time>2025-10-30T02:14:47Z</time>
      </trkpt>
      <trkpt lat="45.92766" lon="4.59234">
        <ele>351</ele>
        <time>2025-10-30T02:15:13Z</time>
      </trkpt>
      <trkpt lat="45.92752" lon="4.59217">
        <ele>353</ele>
        <time>2025-10-30T02:15:38Z</time>
      </trkpt>
      <trkpt lat="45.92729" lon="4.59199">
        <ele>356</ele>
        <time>2025-10-30T02:16:12Z</time>
      </trkpt>
      <trkpt lat="45.92714" lon="4.59196">
        <ele>356</ele>
        <time>2025-10-30T02:16:33Z</time>
      </trkpt>
      <trkpt lat="45.927" lon="4.59196">
        <ele>356</ele>
        <time>2025-10-30T02:16:51Z</time>
      </trkpt>
      <trkpt lat="45.92646" lon="4.5922">
        <ele>348</ele>
        <time>2025-10-30T02:18:07Z</time>
      </trkpt>
      <trkpt lat="45.92623" lon="4.59223">
        <ele>346</ele>
        <time>2025-10-30T02:18:38Z</time>
      </trkpt>
      <trkpt lat="45.92626" lon="4.59219">
        <ele>347</ele>
        <time>2025-10-30T02:18:43Z</time>
      </trkpt>
      <trkpt lat="45.92643" lon="4.59209">
        <ele>350</ele>
        <time>2025-10-30T02:19:08Z</time>
      </trkpt>
      <trkpt lat="45.92644" lon="4.59203">
        <ele>352</ele>
        <time>2025-10-30T02:19:13Z</time>
      </trkpt>
      <trkpt lat="45.92642" lon="4.59198">
        <ele>352</ele>
        <time>2025-10-30T02:19:19Z</time>
      </trkpt>
      <trkpt lat="45.92639" lon="4.59196">
        <ele>353</ele>
        <time>2025-10-30T02:19:23Z</time>
      </trkpt>
      <trkpt lat="45.92631" lon="4.59193">
        <ele>353</ele>
        <time>2025-10-30T02:19:34Z</time>
      </trkpt>
      <trkpt lat="45.92637" lon="4.59175">
        <ele>357</ele>
        <time>2025-10-30T02:19:53Z</time>
      </trkpt>
      <trkpt lat="45.92648" lon="4.59144">
        <ele>365</ele>
        <time>2025-10-30T02:20:25Z</time>
      </trkpt>
      <trkpt lat="45.92619" lon="4.59125">
        <ele>367</ele>
        <time>2025-10-30T02:21:07Z</time>
      </trkpt>
      <trkpt lat="45.92596" lon="4.59111">
        <ele>368</ele>
        <time>2025-10-30T02:21:41Z</time>
      </trkpt>
      <trkpt lat="45.92597" lon="4.59101">
        <ele>371</ele>
        <time>2025-10-30T02:21:50Z</time>
      </trkpt>
      <trkpt lat="45.92598" lon="4.59097">
        <ele>372</ele>
        <time>2025-10-30T02:21:54Z</time>
      </trkpt>
      <trkpt lat="45.92606" lon="4.59091">
        <ele>374</ele>
        <time>2025-10-30T02:22:06Z</time>
      </trkpt>
      <trkpt lat="45.92622" lon="4.59087">
        <ele>377</ele>
        <time>2025-10-30T02:22:28Z</time>
      </trkpt>
      <trkpt lat="45.9264" lon="4.5907">
        <ele>382</ele>
        <time>2025-10-30T02:22:57Z</time>
      </trkpt>
      <trkpt lat="45.92643" lon="4.59061">
        <ele>384</ele>
        <time>2025-10-30T02:23:06Z</time>
      </trkpt>
      <trkpt lat="45.92652" lon="4.59028">
        <ele>392</ele>
        <time>2025-10-30T02:23:39Z</time>
      </trkpt>
      <trkpt lat="45.92667" lon="4.58995">
        <ele>401</ele>
        <time>2025-10-30T02:24:15Z</time>
      </trkpt>
      <trkpt lat="45.92684" lon="4.58974">
        <ele>404</ele>
        <time>2025-10-30T02:24:45Z</time>
      </trkpt>
      <trkpt lat="45.92694" lon="4.58969">
        <ele>405</ele>
        <time>2025-10-30T02:24:59Z</time>
      </trkpt>
      <trkpt lat="45.92728" lon="4.58969">
        <ele>407</ele>
        <time>2025-10-30T02:25:45Z</time>
      </trkpt>
      <trkpt lat="45.9273" lon="4.58974">
        <ele>406</ele>
        <time>2025-10-30T02:25:50Z</time>
      </trkpt>
      <trkpt lat="45.92732" lon="4.58984">
        <ele>405</ele>
        <time>2025-10-30T02:26:00Z</time>
      </trkpt>
      <trkpt lat="45.92737" lon="4.58989">
        <ele>405</ele>
        <time>2025-10-30T02:26:08Z</time>
      </trkpt>
      <trkpt lat="45.92761" lon="4.58993">
        <ele>407</ele>
        <time>2025-10-30T02:26:40Z</time>
      </trkpt>
      <trkpt lat="45.92771" lon="4.58999">
        <ele>407</ele>
        <time>2025-10-30T02:26:55Z</time>
      </trkpt>
      <trkpt lat="45.92829" lon="4.58996">
        <ele>412</ele>
        <time>2025-10-30T02:28:12Z</time>
      </trkpt>
      <trkpt lat="45.92835" lon="4.58994">
        <ele>413</ele>
        <time>2025-10-30T02:28:20Z</time>
      </trkpt>
      <trkpt lat="45.92844" lon="4.58988">
        <ele>414</ele>
        <time>2025-10-30T02:28:33Z</time>
      </trkpt>
      <trkpt lat="45.92867" lon="4.58968">
        <ele>417</ele>
        <time>2025-10-30T02:29:09Z</time>
      </trkpt>
      <trkpt lat="45.92912" lon="4.58941">
        <ele>423</ele>
        <time>2025-10-30T02:30:14Z</time>
      </trkpt>
      <trkpt lat="45.92954" lon="4.5893">
        <ele>427</ele>
        <time>2025-10-30T02:31:11Z</time>
      </trkpt>
      <trkpt lat="45.92987" lon="4.58924">
        <ele>430</ele>
        <time>2025-10-30T02:31:56Z</time>
      </trkpt>
      <trkpt lat="45.93079" lon="4.58903">
        <ele>432</ele>
        <time>2025-10-30T02:34:00Z</time>
      </trkpt>
      <trkpt lat="45.93094" lon="4.58898">
        <ele>432</ele>
        <time>2025-10-30T02:34:21Z</time>
      </trkpt>
      <trkpt lat="45.93113" lon="4.58887">
        <ele>432</ele>
        <time>2025-10-30T02:34:48Z</time>
      </trkpt>
      <trkpt lat="45.93123" lon="4.58879">
        <ele>433</ele>
        <time>2025-10-30T02:35:03Z</time>
      </trkpt>
      <trkpt lat="45.93127" lon="4.58875">
        <ele>433</ele>
        <time>2025-10-30T02:35:10Z</time>
      </trkpt>
      <trkpt lat="45.93108" lon="4.58867">
        <ele>436</ele>
        <time>2025-10-30T02:35:36Z</time>
      </trkpt>
      <trkpt lat="45.93088" lon="4.58857">
        <ele>438</ele>
        <time>2025-10-30T02:36:04Z</time>
      </trkpt>
      <trkpt lat="45.93077" lon="4.58843">
        <ele>441</ele>
        <time>2025-10-30T02:36:24Z</time>
      </trkpt>
      <trkpt lat="45.93075" lon="4.58838">
        <ele>441</ele>
        <time>2025-10-30T02:36:29Z</time>
      </trkpt>
      <trkpt lat="45.93099" lon="4.5883">
        <ele>441</ele>
        <time>2025-10-30T02:37:02Z</time>
      </trkpt>
      <trkpt lat="45.93109" lon="4.58824">
        <ele>442</ele>
        <time>2025-10-30T02:37:17Z</time>
      </trkpt>
      <trkpt lat="45.9313" lon="4.58812">
        <ele>442</ele>
        <time>2025-10-30T02:37:47Z</time>
      </trkpt>
      <trkpt lat="45.93155" lon="4.58789">
        <ele>444</ele>
        <time>2025-10-30T02:38:26Z</time>
      </trkpt>
      <trkpt lat="45.9319" lon="4.5876">
        <ele>446</ele>
        <time>2025-10-30T02:39:20Z</time>
      </trkpt>
      <trkpt lat="45.93234" lon="4.58721">
        <ele>451</ele>
        <time>2025-10-30T02:40:29Z</time>
      </trkpt>
      <trkpt lat="45.9325" lon="4.58707">
        <ele>453</ele>
        <time>2025-10-30T02:40:54Z</time>
      </trkpt>
      <trkpt lat="45.93262" lon="4.58698">
        <ele>452</ele>
        <time>2025-10-30T02:41:12Z</time>
      </trkpt>
      <trkpt lat="45.93274" lon="4.58679">
        <ele>453</ele>
        <time>2025-10-30T02:41:36Z</time>
      </trkpt>
      <trkpt lat="45.9328" lon="4.58668">
        <ele>454</ele>
        <time>2025-10-30T02:41:49Z</time>
      </trkpt>
      <trkpt lat="45.9329" lon="4.58638">
        <ele>457</ele>
        <time>2025-10-30T02:42:20Z</time>
      </trkpt>
      <trkpt lat="45.93298" lon="4.58616">
        <ele>459</ele>
        <time>2025-10-30T02:42:43Z</time>
      </trkpt>
      <trkpt lat="45.9331" lon="4.58593">
        <ele>461</ele>
        <time>2025-10-30T02:43:10Z</time>
      </trkpt>
      <trkpt lat="45.93351" lon="4.58533">
        <ele>464</ele>
        <time>2025-10-30T02:44:28Z</time>
      </trkpt>
      <trkpt lat="45.93357" lon="4.58527">
        <ele>464</ele>
        <time>2025-10-30T02:44:38Z</time>
      </trkpt>
      <trkpt lat="45.93356" lon="4.58524">
        <ele>464</ele>
        <time>2025-10-30T02:44:41Z</time>
      </trkpt>
      <trkpt lat="45.93357" lon="4.58527">
        <ele>464</ele>
        <time>2025-10-30T02:44:44Z</time>
      </trkpt>
      <trkpt lat="45.93382" lon="4.58501">
        <ele>465</ele>
        <time>2025-10-30T02:45:25Z</time>
      </trkpt>
      <trkpt lat="45.93393" lon="4.58496">
        <ele>464</ele>
        <time>2025-10-30T02:45:40Z</time>
      </trkpt>
      <trkpt lat="45.934" lon="4.58498">
        <ele>464</ele>
        <time>2025-10-30T02:45:50Z</time>
      </trkpt>
      <trkpt lat="45.93411" lon="4.58506">
        <ele>461</ele>
        <time>2025-10-30T02:46:06Z</time>
      </trkpt>
      <trkpt lat="45.9342" lon="4.5851">
        <ele>460</ele>
        <time>2025-10-30T02:46:19Z</time>
      </trkpt>
      <trkpt lat="45.93456" lon="4.58512">
        <ele>461</ele>
        <time>2025-10-30T02:47:07Z</time>
      </trkpt>
      <trkpt lat="45.9347" lon="4.58511">
        <ele>461</ele>
        <time>2025-10-30T02:47:26Z</time>
      </trkpt>
      <trkpt lat="45.9353" lon="4.58499">
        <ele>463</ele>
        <time>2025-10-30T02:48:47Z</time>
      </trkpt>
      <trkpt lat="45.93582" lon="4.5849">
        <ele>464</ele>
        <time>2025-10-30T02:49:56Z</time>
      </trkpt>
      <trkpt lat="45.9363" lon="4.58478">
        <ele>466</ele>
        <time>2025-10-30T02:51:01Z</time>
      </trkpt>
      <trkpt lat="45.93643" lon="4.5848">
        <ele>466</ele>
        <time>2025-10-30T02:51:19Z</time>
      </trkpt>
      <trkpt lat="45.93658" lon="4.58486">
        <ele>466</ele>
        <time>2025-10-30T02:51:40Z</time>
      </trkpt>
      <trkpt lat="45.93665" lon="4.58489">
        <ele>465</ele>
        <time>2025-10-30T02:51:49Z</time>
      </trkpt>
      <trkpt lat="45.93708" lon="4.58496">
        <ele>466</ele>
        <time>2025-10-30T02:52:47Z</time>
      </trkpt>
      <trkpt lat="45.93814" lon="4.58525">
        <ele>467</ele>
        <time>2025-10-30T02:55:11Z</time>
      </trkpt>
      <trkpt lat="45.9382" lon="4.5851">
        <ele>469</ele>
        <time>2025-10-30T02:55:27Z</time>
      </trkpt>
      <trkpt lat="45.93825" lon="4.58509">
        <ele>470</ele>
        <time>2025-10-30T02:55:34Z</time>
      </trkpt>
      <trkpt lat="45.93929" lon="4.58555">
        <ele>474</ele>
        <time>2025-10-30T02:57:59Z</time>
      </trkpt>
      <trkpt lat="45.93965" lon="4.58575">
        <ele>477</ele>
        <time>2025-10-30T02:58:51Z</time>
      </trkpt>
      <trkpt lat="45.93969" lon="4.58583">
        <ele>477</ele>
        <time>2025-10-30T02:59:00Z</time>
      </trkpt>
      <trkpt lat="45.93969" lon="4.58615">
        <ele>475</ele>
        <time>2025-10-30T02:59:29Z</time>
      </trkpt>
      <trkpt lat="45.9397" lon="4.58626">
        <ele>474</ele>
        <time>2025-10-30T02:59:40Z</time>
      </trkpt>
      <trkpt lat="45.93975" lon="4.58634">
        <ele>475</ele>
        <time>2025-10-30T02:59:50Z</time>
      </trkpt>
      <trkpt lat="45.94001" lon="4.58664">
        <ele>476</ele>
        <time>2025-10-30T03:00:34Z</time>
      </trkpt>
      <trkpt lat="45.94003" lon="4.58663">
        <ele>476</ele>
        <time>2025-10-30T03:00:37Z</time>
      </trkpt>
      <trkpt lat="45.94028" lon="4.58642">
        <ele>480</ele>
        <time>2025-10-30T03:01:16Z</time>
      </trkpt>
      <trkpt lat="45.9405" lon="4.58615">
        <ele>483</ele>
        <time>2025-10-30T03:01:54Z</time>
      </trkpt>
      <trkpt lat="45.94101" lon="4.58559">
        <ele>491</ele>
        <time>2025-10-30T03:03:20Z</time>
      </trkpt>
      <trkpt lat="45.94107" lon="4.58551">
        <ele>492</ele>
        <time>2025-10-30T03:03:31Z</time>
      </trkpt>
      <trkpt lat="45.94119" lon="4.5853">
        <ele>494</ele>
        <time>2025-10-30T03:03:56Z</time>
      </trkpt>
      <trkpt lat="45.94137" lon="4.58518">
        <ele>496</ele>
        <time>2025-10-30T03:04:23Z</time>
      </trkpt>
      <trkpt lat="45.94153" lon="4.58505">
        <ele>497</ele>
        <time>2025-10-30T03:04:47Z</time>
      </trkpt>
      <trkpt lat="45.94171" lon="4.58486">
        <ele>499</ele>
        <time>2025-10-30T03:05:17Z</time>
      </trkpt>
      <trkpt lat="45.94193" lon="4.58452">
        <ele>500</ele>
        <time>2025-10-30T03:06:00Z</time>
      </trkpt>
      <trkpt lat="45.94227" lon="4.58397">
        <ele>503</ele>
        <time>2025-10-30T03:07:08Z</time>
      </trkpt>
      <trkpt lat="45.94233" lon="4.58379">
        <ele>504</ele>
        <time>2025-10-30T03:07:27Z</time>
      </trkpt>
      <trkpt lat="45.9424" lon="4.58345">
        <ele>506</ele>
        <time>2025-10-30T03:08:00Z</time>
      </trkpt>
      <trkpt lat="45.94238" lon="4.58345">
        <ele>506</ele>
        <time>2025-10-30T03:08:02Z</time>
      </trkpt>
      <trkpt lat="45.9424" lon="4.58345">
        <ele>506</ele>
        <time>2025-10-30T03:08:05Z</time>
      </trkpt>
      <trkpt lat="45.94278" lon="4.58342">
        <ele>510</ele>
        <time>2025-10-30T03:08:56Z</time>
      </trkpt>
      <trkpt lat="45.94313" lon="4.58341">
        <ele>513</ele>
        <time>2025-10-30T03:09:43Z</time>
      </trkpt>
      <trkpt lat="45.94342" lon="4.58344">
        <ele>514</ele>
        <time>2025-10-30T03:10:21Z</time>
      </trkpt>
      <trkpt lat="45.94391" lon="4.58361">
        <ele>516</ele>
        <time>2025-10-30T03:11:29Z</time>
      </trkpt>
      <trkpt lat="45.9442" lon="4.58367">
        <ele>517</ele>
        <time>2025-10-30T03:12:08Z</time>
      </trkpt>
      <trkpt lat="45.94438" lon="4.58364">
        <ele>517</ele>
        <time>2025-10-30T03:12:32Z</time>
      </trkpt>
      <trkpt lat="45.94458" lon="4.5836">
        <ele>518</ele>
        <time>2025-10-30T03:12:59Z</time>
      </trkpt>
      <trkpt lat="45.94481" lon="4.58347">
        <ele>519</ele>
        <time>2025-10-30T03:13:32Z</time>
      </trkpt>
      <trkpt lat="45.94489" lon="4.58343">
        <ele>519</ele>
        <time>2025-10-30T03:13:43Z</time>
      </trkpt>
      <trkpt lat="45.94488" lon="4.5834">
        <ele>519</ele>
        <time>2025-10-30T03:13:46Z</time>
      </trkpt>
    </trkseg>
  </trk>
</gpx>